samedi 08 septembre 2018

Le Classement original se trouve sur : http://www.chronorace.be        
 
LE TRAIL DE LA COTE D'OPALE - WISSANT
DISTANCE : 14.00 km
samedi 08 septembre 2018
 
Place Dos NOM Equipe Catégorie Pl/cat temps temps/km Vitesse
1 9866 BELTRANDO LIONEL   SH 1 0:54:43 03:55 15.35
2 9525 ANDRE JEAN ERIC   SH 2 0:54:55 03:55 15.30
3 8292 GANTOIS BERNARD SER'VÉLO TEAM V1 1 0:55:10 03:56 15.23
4 9388 LOEUIL ARTHUR   SH 3 0:55:29 03:58 15.14
5 9346 MALOULI MICHAEL   V1 2 0:56:10 04:01 14.95
6 8911 CARTON BAPTISTE LILLE MÉTROPOLE SH 4 0:56:38 04:03 14.83
7 8160 COULON AYMERIC   SH 5 0:58:07 04:09 14.45
8 9259 DEWULF NICOLAS TRANSPOLE SH 6 0:58:15 04:10 14.42
9 9206 WIEME PHILIPPE CAP BEAURAING V2 1 0:58:24 04:10 14.38
10 8508 RITEL MATTHIEU   SH 7 0:58:28 04:11 14.37
11 9262 DUBOIS CHARLES-ANTOINE   SH 8 0:58:44 04:12 14.30
12 8478 VIEILLARD LOUIS   SH 9 0:58:54 04:12 14.26
13 8448 THERY LAURENT WASQUEHAL TRIATH V1 3 0:58:56 04:13 14.25
14 8475 BOITTE ARNAUD TIME TO RUN SH 10 0:59:01 04:13 14.23
15 9714 DUMONT JIMMY   SH 11 0:59:03 04:13 14.22
16 9590 COQUIO JULIEN   SH 12 0:59:04 04:13 14.22
17 8573 CAILLER EDOUARD   SH 13 0:59:46 04:16 14.05
18 8486 ALLAËRT CLAUDE TEAM OFF COURSE V2 2 1:00:00 04:17 14.00
19 9724 ROY-KENT STEEVE GROUPE EMPLIO SH 14 1:00:14 04:18 13.95
20 9092 DECOTTEGNIE LOUIS DECOTTEGNIE SH 15 1:00:38 04:20 13.85
21 9556 TRUPIN GRÉGORY   SH 16 1:00:49 04:21 13.81
22 9595 BOUZIDI DJAMEL   SH 17 1:00:57 04:21 13.78
23 9081 ACHTE VALENTIN   SH 18 1:00:59 04:21 13.77
24 9723 LAURENT OLIVIER GROUPE EMPLIO V2 3 1:01:02 04:22 13.76
25 9204 MAHIEU HUGUES CAP BEAURAING V3 1 1:01:03 04:22 13.76
26 8499 FARINAUX XAVIER   SH 19 1:01:06 04:22 13.75
27 8410 CORSWAREM PIERRE-HENRI WAC SH 20 1:01:06 04:22 13.75
28 8700 REYNAERT QUENTIN   SH 21 1:01:07 04:22 13.74
29 8496 CAUCHETEUX SEBASTIEN   SH 22 1:01:13 04:22 13.72
30 9277 DECLERCQ DAVID   SH 23 1:01:18 04:23 13.70
31 8053 CLIPET TONY   V1 4 1:01:21 04:23 13.69
32 8210 LOYWICK JÉRÔME   SH 24 1:01:23 04:23 13.68
33 8578 LECLERCQ THEOPHILE   SH 25 1:01:30 04:24 13.66
34 9814 MARCOTTE HUGO   SH 26 1:01:57 04:26 13.56
35 9048 CAUMARTIN CHRISTOPHE LES FURIEUX DE L V2 4 1:02:26 04:28 13.45
36 8767 LEGROS JACQUES LA THURE V3 2 1:02:27 04:28 13.45
37 9187 DAELEMANS JEROEN   SH 27 1:02:55 04:30 13.35
38 9674 LEDROLE MATHIEU   JH 1 1:03:02 04:30 13.33
39 8422 BLONDEL GRÉGOIRE ARTOIS ATHLÉTISM SH 28 1:03:05 04:30 13.32
40 9028 TANG XIAOHUA   SH 29 1:03:11 04:31 13.29
41 9809 CRETON KEVIN   SH 30 1:03:27 04:32 13.24
42 9241 ROUZE THIBAUT AS RUNNING LFB SH 31 1:03:33 04:32 13.22
43 9589 DONZE DONZE   SH 32 1:03:38 04:33 13.20
44 8548 BODDAERT JEROME   SH 33 1:04:03 04:35 13.11
45 8331 LAMOUR MAXIME   SH 34 1:04:04 04:35 13.11
46 8049 CORRUE CÉDRIC LES ECUREUILS VT SH 35 1:04:05 04:35 13.11
47 8039 VASSEUR RAPHAËL   SH 36 1:04:07 04:35 13.10
48 9593 LEMAIRE SYLVAIN   V2 5 1:04:07 04:35 13.10
49 9426 DUC-MAUGE LAURENT   V2 6 1:04:08 04:35 13.10
50 8497 DELEARDE MELANIE   SD 1 1:04:10 04:35 13.09
51 8289 RACCUGLIA ALESSANDRO ACLO SH 37 1:04:12 04:35 13.08
52 8865 DE ROCCO CHARLES   SH 38 1:04:15 04:35 13.07
53 8224 LECLERCQ BENOÎT   SH 39 1:04:16 04:35 13.07
54 9588 MADOUX JEAN-BAPTISTE   SH 40 1:04:24 04:36 13.04
55 9455 GOURDAIN FRANCK   V1 5 1:04:27 04:36 13.03
56 9733 MOURANT PIERRE GROUPE EMPLIO V1 6 1:04:29 04:36 13.03
57 8673 LECLERCQ JEAN-CHRISTOPHE RUNNERS EN NORD SH 41 1:04:30 04:36 13.02
58 8785 CHOQUET FLORENCE   A1 1 1:04:39 04:37 12.99
59 8816 NICOLAS JEAN-BAPTISTE   SH 42 1:04:55 04:38 12.94
60 8082 DELBARRE ANTOINE   SH 43 1:05:23 04:40 12.85
61 9186 HAKIR BERNARD   V2 7 1:05:28 04:41 12.83
62 9785 BONANNO SABRINA   SD 2 1:05:33 04:41 12.81
63 9410 VAN OVERTVELDT ELODIE   SD 3 1:05:34 04:41 12.81
64 9849 NR 9849   xxx   1:05:35 04:41 12.81
65 8566 ROBIN JEAN CHRISTOPHE   SH 44 1:05:59 04:43 12.73
66 9224 LADERRIÈRE THOMAS   JH 2 1:06:01 04:43 12.72
67 9354 LELEU FRANÇOIS   SH 45 1:06:01 04:43 12.72
68 8647 LEMAIRE ANTHONY   SH 46 1:06:04 04:43 12.71
69 8426 MOREZ GUILLAUME   V1 7 1:06:05 04:43 12.71
70 9405 LAMPE BERNARD   V2 8 1:06:06 04:43 12.71
71 8338 GAGLIANONE MARC GTC SH 47 1:06:22 04:44 12.66
72 9838 JACOB CHRISTOPHE EUROTUNNEL V1 8 1:06:34 04:45 12.62
73 8769 GARDIN GRÉGOIRE NÉANT SH 48 1:06:41 04:46 12.60
74 9402 DUHEM MATTHIEU   V1 9 1:06:43 04:46 12.59
75 8326 CANY MAXENCE LA MEUTE SH 49 1:06:43 04:46 12.59
76 8002 SCRIVE BENJAMIN 1970 SH 50 1:06:49 04:46 12.57
77 8325 DUEZ ROMAIN LA MEUTE SH 51 1:06:56 04:47 12.55
78 9035 FURMANIAK ALEXIS   SH 52 1:06:56 04:47 12.55
79 9239 RENAUX CHARLES   SH 53 1:06:58 04:47 12.54
80 8110 QUENNEHEN DOMINIQUE   V1 10 1:07:08 04:48 12.51
81 8807 BLAIRON ALEXANDRE   SH 54 1:07:32 04:49 12.44
82 8804 BLAIRON MÉLANIE   SD 4 1:07:36 04:50 12.43
83 9821 BRECHIGNAC VINCENT   V1 11 1:07:52 04:51 12.38
84 8535 MAILLOT FRÉDÉRIC   SH 55 1:07:58 04:51 12.36
85 8083 FLAHAUT FREDERIC   V1 12 1:08:05 04:52 12.34
86 8131 PRUVOST OLIVIER   SH 56 1:08:06 04:52 12.33
87 8421 GILLIERS KEVIN   SH 57 1:08:22 04:53 12.29
88 8139 LUBRET REMY   SH 58 1:08:22 04:53 12.29
89 8830 DELAMAERE JULIEN   SH 59 1:08:23 04:53 12.28
90 9367 GANDON THIBAULT   V1 13 1:08:34 04:54 12.25
91 9491 POCHET LOUIS   SH 60 1:08:36 04:54 12.24
92 8302 DELCROIX STEPHANE   V1 14 1:08:44 04:55 12.22
93 8232 ROMMEL CEDRIC RUN'IN BROUCK SH 61 1:08:48 04:55 12.21
94 8536 DARROUZET MATTHIEU   SH 62 1:08:48 04:55 12.21
95 8684 TREHOUX THIBAUT   V1 15 1:08:49 04:55 12.21
96 8355 MANIER MORGAN   SH 63 1:08:58 04:56 12.18
97 8097 AGOSTINO ANTONIO LES ÉCLATÉS V1 16 1:08:59 04:56 12.18
98 8888 BERTIN LOUIS   SH 64 1:09:00 04:56 12.17
99 8643 VANHOVE PASCAL   V1 17 1:09:04 04:56 12.16
100 8170 DEUDON THIBAULT   SH 65 1:09:04 04:56 12.16
101 8288 VERMEULEN CELINE   SD 5 1:09:04 04:56 12.16
102 8501 VAN GYSEGHEM ALAIN   V2 9 1:09:04 04:56 12.16
103 9056 ROGGEMAN FRANCOIS   SH 66 1:09:08 04:56 12.15
104 8184 HECQ ROMARIC   SH 67 1:09:09 04:56 12.15
105 8087 CUGNY VINCENT   SH 68 1:09:15 04:57 12.13
106 8447 COURTENS CHRISTIAN JCL V3 3 1:09:21 04:57 12.11
107 8887 BERTIN GUILLAUME   SH 69 1:09:23 04:57 12.11
108 8180 LAHOUSSE ODILE   A1 2 1:09:24 04:57 12.10
109 9333 BONFOND JULIEN   SH 70 1:09:25 04:58 12.10
110 9572 VOLANT YOLANDE   A1 3 1:09:34 04:58 12.07
111 9573 LACHERE MICHAEL   SH 71 1:09:34 04:58 12.07
112 9577 AUDOUIN MAXENCE   SH 72 1:09:41 04:59 12.05
113 9156 DECLERCQ GUY NON V2 10 1:09:41 04:59 12.05
114 9025 LAMBERT CORENTIN   SH 73 1:09:48 04:59 12.03
115 8971 GRULOIS TOM   SH 74 1:09:56 05:00 12.01
116 8290 GANTOIS ANTOINE SER'VÉLO TEAM JH 3 1:10:01 05:00 12.00
117 9687 DOUDELET CLEMENT   SH 75 1:10:14 05:01 11.96
118 8585 SIMONIAN JULIEN   SH 76 1:10:14 05:01 11.96
119 8531 LIENARD STEPHANE   V1 18 1:10:15 05:01 11.96
120 8550 CATTEAU MAXIME   SH 77 1:10:16 05:01 11.95
121 8834 PATIGNY SEBASTIEN   SH 78 1:10:19 05:01 11.95
122 8134 CAPILLIER CLÉMENT JSD SH 79 1:10:29 05:02 11.92
123 9585 DESMIS ANTOINE   V1 19 1:10:32 05:02 11.91
124 8564 BARGIBANT CÉDRIC   SH 80 1:10:34 05:02 11.90
125 8828 DECOCK CHARLES   SH 81 1:10:46 05:03 11.87
126 8630 RUISSEAU CÉLINE   A1 4 1:10:46 05:03 11.87
127 9619 LEBON RUDY EUROTUNNEL V1 20 1:10:48 05:03 11.86
128 8639 LEBAS QUENTIN   SH 82 1:10:51 05:04 11.86
129 9319 BOURGAIN LEO   JH 4 1:10:52 05:04 11.85
130 9467 HERICOURT CHRISTOPHE ES ARQUES V2 11 1:10:52 05:04 11.85
131 8030 LAURENT PHILIPPE   V2 12 1:10:54 05:04 11.85
132 9776 DELANGUE NICOLAS   V1 21 1:10:59 05:04 11.83
133 9106 HERREMANS THOMAS   SH 83 1:11:02 05:04 11.82
134 9540 BERTIN LOUIS   SH 84 1:11:02 05:04 11.82
135 9487 ROWLANDSO EMILY AC CLERMONT SD 6 1:11:15 05:05 11.79
136 9484 LEROY BERTRAND AC CLERMONT / SH 85 1:11:16 05:05 11.79
137 9489 DELBÉ CLÉMENT   SH 86 1:11:17 05:06 11.78
138 9766 LACHEVRE LAURENT   SH 87 1:11:17 05:06 11.78
139 9579 VAUTRIN HÉLÈNE   SD 7 1:11:23 05:06 11.77
140 8407 THYRANT ELLIOT   JH 5 1:11:28 05:06 11.75
141 9050 GODOT VIRGINIE VAL DE SOMME A1 5 1:11:30 05:06 11.75
142 9558 MARTIN AGATHE   SD 8 1:11:38 05:07 11.73
143 8471 CORNET FRANÇOIS   SH 88 1:11:42 05:07 11.71
144 8967 MOUILLARD REMI ASCCAP CORBEHEM SH 89 1:11:42 05:07 11.71
145 8965 MOUILLARD ALAIN ASCCAP CORBEHEM V1 22 1:11:42 05:07 11.71
146 8833 BONINGUE NICOLAS   SH 90 1:11:43 05:07 11.71
147 8709 VIEILLARD VINCENT   SH 91 1:11:47 05:08 11.70
148 9155 GUIOT FABRICE LA THURE V1 23 1:11:52 05:08 11.69
149 8309 DEFYVE FABIAN   V1 24 1:11:52 05:08 11.69
150 8589 LEBLON MARC VERTIGO SH 92 1:11:54 05:08 11.68
151 9140 GUIGNARD THOMAS   V1 25 1:11:56 05:08 11.68
152 9168 LESAGE SEBASTIEN DECOTTEGNIE V1 26 1:12:07 05:09 11.65
153 8055 DAMEZ PHILIPPE   V1 27 1:12:07 05:09 11.65
154 8211 DENTANT CLARISSE   SD 9 1:12:12 05:09 11.63
155 9443 FERAMUS FRÉDÉRIC   V2 13 1:12:15 05:10 11.63
156 8592 LAIGLE OLIVIER   V1 28 1:12:18 05:10 11.62
157 9133 DEMARLE JULIEN   SH 93 1:12:19 05:10 11.61
158 8128 PAU VALENTINO   V2 14 1:12:23 05:10 11.60
159 9386 CANEL JEAN-MICHEL   V2 15 1:12:27 05:11 11.59
160 9359 AUDEBERT ALLAN   SH 94 1:12:28 05:11 11.59
161 8193 LAURENT JEAN BAPTISTE   SH 95 1:12:30 05:11 11.59
162 9700 BLANCHART PHILIPPE   V1 29 1:12:34 05:11 11.57
163 9578 VAUTRIN ETIENNE COSD TRIATHLON V2 16 1:12:35 05:11 11.57
164 8233 OFFE CAROLINE COURIR À GRAVELI SD 10 1:12:39 05:11 11.56
165 8212 ACCETTONE ANTOINE   JH 6 1:12:39 05:11 11.56
166 9308 FROMENT DOMINIQUE   V1 30 1:12:41 05:12 11.56
167 8354 VANDORPE AGATHE   SD 11 1:12:48 05:12 11.54
168 8278 BOUTOILLE OLIVIER   SH 96 1:12:50 05:12 11.53
169 9046 BRES FRANCK LES FURIEUX DE L V1 31 1:12:52 05:12 11.53
170 8827 FERAILLE QUENTIN   SH 97 1:12:58 05:13 11.51
171 9698 DUBOIS FABIEN   SH 98 1:13:04 05:13 11.50
172 9174 BRIFFOZ LUDO   V2 17 1:13:05 05:13 11.49
173 9571 ROUSSEL CEDRIC GROUPE GOBERT RU V1 32 1:13:07 05:13 11.49
174 9743 FRANCOIS RÉMI   SH 99 1:13:07 05:13 11.49
175 9129 LORIDAN PAUL-EDOUARD HARDELOT BEACH SH 100 1:13:10 05:14 11.48
176 9414 OUVRIER-NEYRET ALEXY   SH 101 1:13:12 05:14 11.47
177 8330 DRAUX STEPHANE LES FONTAINOIS V1 33 1:13:12 05:14 11.47
178 9630 DULAC FABRICE   V1 34 1:13:20 05:14 11.45
179 8095 LANCE BENJAMIN SPORT PLUS SH 102 1:13:26 05:15 11.44
180 8973 GRULOIS BERTRAND   V1 35 1:13:30 05:15 11.43
181 8197 FRANGEUL ERIC   SH 103 1:13:31 05:15 11.43
182 8144 HEDEL VANESSA TEAM GRAVELINES SD 12 1:13:34 05:15 11.42
183 9293 ZUIJDERHOFF ALFRED   JH 7 1:13:40 05:16 11.40
184 9440 FERAMUS CAMILLE   SD 13 1:13:42 05:16 11.40
185 9060 MAYEUR JEROME LES LOUPS BLANCS V1 36 1:13:43 05:16 11.39
186 8999 GRELIER MATTHIEU   SH 104 1:13:44 05:16 11.39
187 8176 TELLIER BENJAMIN   SH 105 1:13:44 05:16 11.39
188 8477 VIEILLARD MARTIN   SH 106 1:13:44 05:16 11.39
189 9184 DELATTRE AMÉLIE   SD 14 1:13:45 05:16 11.39
190 8625 DEGAND BENJAMIN   V1 37 1:13:51 05:17 11.37
191 9023 MEUNIER JEAN-CHRISTOPHE   V1 38 1:13:52 05:17 11.37
192 8001 SCRIVE FABIEN 1970 V1 39 1:13:57 05:17 11.36
193 9310 DESTAILLEUR VINCENT   V1 40 1:14:03 05:17 11.34
194 9234 DAUTHIEU MARC-ANTOINE   V1 41 1:14:03 05:17 11.34
195 9336 RENAUX FLORIAN   SH 107 1:14:04 05:17 11.34
196 8662 PÏCARD CHRISTOPHE   V1 42 1:14:05 05:18 11.34
197 8918 PIOTR ZABROWARNY   V1 43 1:14:07 05:18 11.33
198 8143 DE TEMMERMAN MICHEL   V3 4 1:14:07 05:18 11.33
199 8121 SAMELOT VINCENT LA PATRIOTE CROS SH 108 1:14:08 05:18 11.33
200 8969 DELANGUE ELISE   A1 6 1:14:14 05:18 11.32
201 9660 BARGE EMILIE   SD 15 1:14:14 05:18 11.32
202 8493 DEVYS JEAN-CHRISTOPHE   V1 44 1:14:17 05:18 11.31
203 9661 LAPOTRE LUDOVIC   V1 45 1:14:18 05:18 11.30
204 9246 FOUSSEREAU MATTHIEU   SH 109 1:14:21 05:19 11.30
205 9782 DELATTRE MÉLANIE   A1 7 1:14:24 05:19 11.29
206 8075 BUTEL ROMAIN   SH 110 1:14:32 05:19 11.27
207 9369 CAILLE CHRISTELLE HELOTEAM A1 8 1:14:32 05:19 11.27
208 8818 MADRZYK FRANCIS   V1 46 1:14:32 05:19 11.27
209 8505 SCHMETZ OPHÉLIE   SD 16 1:14:33 05:20 11.27
210 8504 BORN BENJAMIN BOITHEUX SH 111 1:14:33 05:20 11.27
211 8525 GUILBERT OLIVIER   V1 47 1:14:35 05:20 11.26
212 8023 COOPMAN THIERRY AVIRON LILLE V2 18 1:14:36 05:20 11.26
213 9794 RÉTHORÉ TOUSSAINT   SH 112 1:14:42 05:20 11.24
214 9077 DELCROIX STEPHANE   V1 48 1:14:42 05:20 11.24
215 9080 VANDERPERRE AARON   SH 113 1:14:43 05:20 11.24
216 8479 VIEILLARD ISABELLE   A1 9 1:14:44 05:20 11.24
217 8356 PAYEN ALINE   SD 17 1:14:45 05:20 11.24
218 9000 RIBET PHILIPPINE   SD 18 1:14:46 05:20 11.23
219 9290 BEAUPÈRE NICOLAS   SH 114 1:14:48 05:21 11.23
220 8599 SAUNIER NICOLAS   V1 49 1:14:50 05:21 11.22
221 8568 GAUSSIN FRÉDÉRIC   V1 50 1:14:51 05:21 11.22
222 8933 BUDZILO EDDIE   V1 51 1:14:52 05:21 11.22
223 9157 LEFEBVRE THOMAS   SH 115 1:14:53 05:21 11.22
224 9401 VANDEKERCKHOVE QUENTIN   SH 116 1:14:53 05:21 11.22
225 9395 BOUTRY SABRINA BOUTRY'S TEAM SD 19 1:14:53 05:21 11.22
226 8533 DEMARET ISABELLE   SD 20 1:14:55 05:21 11.21
227 8130 MONTIGNY MANUEL   V1 52 1:14:55 05:21 11.21
228 9154 LOBET FABIAN NON V1 53 1:14:56 05:21 11.21
229 9656 COMTE GRÉGORY   SH 117 1:14:57 05:21 11.21
230 8351 CARCEL PIERRE-MARIE LES FONTENOIS SH 118 1:15:01 05:22 11.20
231 8072 HARLÉ JOHAN   V1 54 1:15:03 05:22 11.19
232 8234 YANNOU PATRICK   V2 19 1:15:08 05:22 11.18
233 8995 VAN ROY ETIENNE ATHLÉ COURSE LOI V2 20 1:15:14 05:22 11.16
234 9626 DUPIRE JEANNE   SD 21 1:15:15 05:23 11.16
235 9618 COUZIN LUDOVIC EUROTUNNEL V1 55 1:15:16 05:23 11.16
236 9500 CASTEL CELESTINE   SD 22 1:15:22 05:23 11.14
237 8641 HOUVENAEGHEL DAMIEN   V1 56 1:15:24 05:23 11.14
238 9083 SACHOT MATHIEU   SH 119 1:15:29 05:24 11.13
239 9130 DECOTTEGNIE ERIC DECOTTEGNIE V2 21 1:15:35 05:24 11.11
240 8074 GIELEN CORENTIN   SH 120 1:15:36 05:24 11.11
241 9446 LE CALVEZ ERWAN   SH 121 1:15:36 05:24 11.11
242 9007 DAUDIER DE CASSINI FAUSTINE   SD 23 1:15:37 05:24 11.11
243 9465 DUBOIS CHARLES-ANTOINE   SH 122 1:15:38 05:24 11.11
244 8985 VALLÉE SÉBASTIEN   SH 123 1:15:40 05:24 11.10
245 8713 WÉRION PAULINE   SD 24 1:15:42 05:24 11.10
246 8005 BOUCHARD DAMIEN TEAM TRAIL OPALE SH 124 1:15:44 05:25 11.09
247 9811 HANQUIEZ ANNE   SD 25 1:15:45 05:25 11.09
248 9643 LEPADATU NICULAE EUROTUNNEL V1 57 1:15:46 05:25 11.09
249 9103 QUESNEL LAURENCE LMA SH 125 1:15:49 05:25 11.08
250 8949 SAINT-CAST OLIVIER   V2 22 1:15:53 05:25 11.07
251 9665 PARISSEAUX ANNE-SOPHIE   SD 26 1:15:54 05:25 11.07
252 8474 ALLARD ADRIEN   SH 126 1:16:09 05:26 11.03
253 9737 WAUTHIER VINCENT   V1 58 1:16:12 05:27 11.02
254 8931 LECLERCQ EMILIE   SD 27 1:16:15 05:27 11.02
255 9514 MULLER ROBIN ATHLETIC CLUB MA JH 8 1:16:17 05:27 11.01
256 8864 VANDWALLE JEAN LUC   V1 59 1:16:19 05:27 11.01
257 8245 RIVALAN DAVID   V1 60 1:16:20 05:27 11.00
258 8198 DEMARCQ SIMON   SH 127 1:16:21 05:27 11.00
259 9079 ALLUIN MARIE NOELLE   A2 1 1:16:24 05:27 10.99
260 8071 LALY CORALINE NSAEC SD 28 1:16:26 05:28 10.99
261 8054 WADOUX CYRIL   SH 128 1:16:27 05:28 10.99
262 9004 DAUDIER DE CASSINI ÉRIC   V2 23 1:16:28 05:28 10.98
263 8891 MARLIER PIERRE FER V1 61 1:16:28 05:28 10.98
264 8512 FLIPO MARC   SH 129 1:16:28 05:28 10.98
265 9520 DHALLUIN QUENTIN   SH 130 1:16:29 05:28 10.98
266 9398 THERETZ LUDOVIC LILLE TRIATHLON SH 131 1:16:30 05:28 10.98
267 8670 DESCAMPS LAURENT   V2 24 1:16:30 05:28 10.98
268 9538 STIVAL GUILLAUME   SH 132 1:16:31 05:28 10.98
269 8703 CALLENS SEBASTIEN   SH 133 1:16:32 05:28 10.98
270 8086 DECRIEM FRANÇOIS TRAILERS DU BEEF SH 134 1:16:32 05:28 10.98
271 8137 DOUMENGE LAETITIA TEAM GRAVELINES A1 10 1:16:33 05:28 10.97
272 8946 WRONKA THIERRY ASC CAP V2 25 1:16:40 05:29 10.96
273 9377 VITET MORGANE   SD 29 1:16:40 05:29 10.96
274 8009 FOURCROY LÉO   SH 135 1:16:43 05:29 10.95
275 9425 HURAUT LEON TRIPN'KITE SH 136 1:16:44 05:29 10.95
276 9345 NADER JOHAN   SH 137 1:16:45 05:29 10.94
277 8252 DEMONCEAU ISABELLE HOUSSE A1 11 1:16:54 05:30 10.92
278 9217 LEPRETRE JULIEN   SH 138 1:16:56 05:30 10.92
279 9196 REGNIEZ ALEXANDRE   V1 62 1:17:04 05:30 10.90
280 8831 CRETON FRÉDÉRIC LES TRAILERS DU V1 63 1:17:06 05:30 10.89
281 8948 SAINT-CAST APOLLINE   JF 1 1:17:11 05:31 10.88
282 8024 COOPMAN BAPTISTE AVIRON LILLE SH 139 1:17:11 05:31 10.88
283 9869 NR 9869   xxx   1:17:13 05:31 10.88
284 9587 DESMIS AGATHE   SD 30 1:17:20 05:31 10.86
285 9512 MULLER RAPHAEL   V1 64 1:17:24 05:32 10.85
286 9173 RUOSO GIANNI   V1 65 1:17:26 05:32 10.85
287 8069 LORTHIOIS PERRINE   SD 31 1:17:32 05:32 10.83
288 8537 PLANECKI THOMAS   SH 140 1:17:41 05:33 10.81
289 8555 DEWAS CLEMENCE   SD 32 1:17:43 05:33 10.81
290 8557 DEWAS GÉRY   V1 66 1:17:44 05:33 10.81
291 9266 PAQUE DAVID   SH 141 1:17:49 05:34 10.79
292 9522 GORGE LOUIS N/A SH 142 1:17:49 05:34 10.79
293 9627 NOEL ALEXANDRE EUROTUNNEL V1 67 1:17:51 05:34 10.79
294 9071 KASZYNSKI ERIC COURIR A BERSEE V1 68 1:17:55 05:34 10.78
295 9055 JOLY HELENE VAL DE SOMME A2 2 1:17:56 05:34 10.78
296 9219 DUQUENOŸ THIERRY   V2 26 1:17:58 05:34 10.77
297 9548 DUCROND JEAN-LUC   V1 69 1:18:00 05:34 10.77
298 9389 PEIRETTI VALENTIN   JH 9 1:18:06 05:35 10.75
299 9276 SINGER THIBAUT   V1 70 1:18:08 05:35 10.75
300 9183 DONNEAUD CHARLOTTE   SD 33 1:18:10 05:35 10.75
301 9753 BOUTOILLE ANDRE   V2 27 1:18:10 05:35 10.75
302 9505 DERBECOURT GUILLAUME   SH 143 1:18:13 05:35 10.74
303 9272 DEMOUTIEZ FREDERIC   V2 28 1:18:20 05:36 10.72
304 9518 DEPREY ANNE   SD 34 1:18:23 05:36 10.72
305 9480 RAMBUR ALEXANDRA   SD 35 1:18:24 05:36 10.71
306 9125 LAMBERT RONAN QUEVY RUN V1 71 1:18:26 05:36 10.71
307 9603 EPINETTE ARNAUD   V1 72 1:18:26 05:36 10.71
308 8148 ARGENTIN FRÉDÉRIC   SH 144 1:18:26 05:36 10.71
309 8611 DEHEZ CATHERINE   A1 12 1:18:28 05:36 10.70
310 8026 BEAUMER GUILLAUME   V1 73 1:18:29 05:36 10.70
311 9159 DRAMAIX MANON GAZELLES DE SIRA SD 36 1:18:30 05:36 10.70
312 9185 DUTHOIT CAMILLE   SD 37 1:18:31 05:37 10.70
313 8377 COEN MARIE-FRANCE   A1 13 1:18:34 05:37 10.69
314 9194 BOURDREZ EMMANUEL   V2 29 1:18:35 05:37 10.69
315 8701 REDEKER FRIEDERIKE   A2 3 1:18:38 05:37 10.68
316 8524 GUILBERT JEROME   V1 74 1:18:39 05:37 10.68
317 9557 DUBOIS MAXENCE   SH 145 1:18:42 05:37 10.67
318 9582 NIN EDGARD ASBF BANQUE DE F V2 30 1:18:47 05:38 10.66
319 9580 PRAT BEATRICE ASBF BANQUE DE F A2 4 1:18:47 05:38 10.66
320 9609 DELATTRE LISE   SD 38 1:18:48 05:38 10.66
321 9034 VANTREPOTTE EMILIE HERGNIES ATHLETI SD 39 1:18:49 05:38 10.66
322 9037 CARDON LAURENT HERGNIES ATHLETI V1 75 1:18:49 05:38 10.66
323 8593 CHARIK ARKATI   V2 31 1:18:50 05:38 10.65
324 9531 DELHELLE DAMIEN   V1 76 1:18:52 05:38 10.65
325 9781 DISSAUX ARNAID   SH 146 1:18:58 05:38 10.64
326 9631 GENTIL CHARLES EUROTUNNEL SH 147 1:18:59 05:39 10.63
327 8367 DECROIX HELENE   SD 40 1:19:02 05:39 10.63
328 8702 FAUQUEUX CLAIRE   SD 41 1:19:04 05:39 10.62
329 8187 DULOT KEVIN   SH 148 1:19:06 05:39 10.62
330 8760 MARLIÈRE ERIC J.C.BAUDOUR V3 5 1:19:07 05:39 10.62
331 9207 WIEME ARTHUR CAP BEAURAING SH 149 1:19:07 05:39 10.62
332 9521 DELAOUTRE ALIXIA N/A SD 42 1:19:17 05:40 10.59
333 9221 BOUTILLON JÉRÉMIE   SH 150 1:19:19 05:40 10.59
334 8132 LESAGE YANNICK   V1 77 1:19:22 05:40 10.58
335 8052 BEWERSDORF JESSICA TEAM GRAVELINES A1 14 1:19:22 05:40 10.58
336 9392 ROULLEAU NICOLAS   SH 151 1:19:23 05:40 10.58
337 9387 BRUNEL JULIETTE   SD 43 1:19:23 05:40 10.58
338 9109 BAUDENS REMY   SH 152 1:19:23 05:40 10.58
339 9324 LEPOUTRE AGATHE   SD 44 1:19:25 05:40 10.58
340 8117 HEROUART QUENTIN   SH 153 1:19:26 05:40 10.57
341 8096 HEROUART NATHAN   SH 154 1:19:27 05:41 10.57
342 8041 BERNARD LUDIVINE TEAM GRAVELINES SD 45 1:19:29 05:41 10.57
343 8667 DURAND DROUHIN OLIVIER   V1 78 1:19:36 05:41 10.55
344 8357 JANSSENS CHRISTELLE LES MORTIVÉS A1 15 1:19:46 05:42 10.53
345 8046 PICHARD FRANCK   V1 79 1:19:51 05:42 10.52
346 9847 NR 9847   xxx   1:19:52 05:42 10.52
347 8786 MERCIER AURELIE   A1 16 1:19:53 05:42 10.51
348 9218 DETANT BAPTISTE   SH 155 1:20:02 05:43 10.50
349 9605 DEMORY GUY   V1 80 1:20:02 05:43 10.50
350 8138 AGEZ AGNÈS TEAM GRAVELINES SD 46 1:20:02 05:43 10.50
351 8088 FOURDIN REGIS   V2 32 1:20:05 05:43 10.49
352 8353 VANDORPE LUCIE   SD 47 1:20:06 05:43 10.49
353 8925 TOULEMONDE AXEL   V1 81 1:20:06 05:43 10.49
354 8118 FOURRIER CECILE   A1 17 1:20:10 05:44 10.48
355 8596 ANTROPE MARIE   SD 48 1:20:14 05:44 10.47
356 9762 BONNEAU LAURE ANNE   SD 49 1:20:16 05:44 10.46
357 9549 PEDIAC JEROME   V1 82 1:20:16 05:44 10.46
358 8012 WIERRE AUDE   SD 50 1:20:17 05:44 10.46
359 9664 HERLEM STÉPHANE   V1 83 1:20:20 05:44 10.46
360 9727 PERUS DAVIS GROUPE EMPLIO SH 156 1:20:25 05:45 10.45
361 9726 MASSET NICOLAS GROUPE EMPLIO V1 84 1:20:25 05:45 10.45
362 9816 SALLES ANDRÉ   SH 157 1:20:26 05:45 10.44
363 8425 MARCZAK ANTHONY   SH 158 1:20:26 05:45 10.44
364 8080 LOBRY SAMUEL CACB CLUB ATHLÉT V1 85 1:20:40 05:46 10.41
365 8802 MARQUET SEBASTIEN   V1 86 1:20:40 05:46 10.41
366 8663 PANTEGHINI ALEXANDRE   V1 87 1:20:43 05:46 10.41
367 8610 MARQUET LAURE   A1 18 1:20:44 05:46 10.40
368 9596 MUNGIOVI DARIO   SH 159 1:20:49 05:46 10.39
369 8336 THIROUX STEFFI TEAM MESNIL SD 51 1:20:49 05:46 10.39
370 8006 PRUDHOMME JULIE   SD 52 1:20:51 05:47 10.39
371 9355 RODRIGUES EMMA   SD 53 1:20:53 05:47 10.38
372 9841 NR 9841   xxx   1:20:53 05:47 10.38
373 9636 DENOEUD OLIVIA EUROTUNNEL A1 19 1:20:57 05:47 10.38
374 9435 PAGET DOROTHÉE   A2 5 1:20:57 05:47 10.38
375 9805 CARPENTIER MATHILDE   SD 54 1:20:59 05:47 10.37
376 8098 DEMAZEUX FRANCK TEAM TIUNFOU V1 88 1:21:00 05:47 10.37
377 8503 BOUCHAT FRANCIS   V2 33 1:21:04 05:47 10.36
378 9654 SILIEN BENJAMIN CAP BEAURAING SH 160 1:21:05 05:48 10.36
379 8038 WACOGNE STEPHANIE AC CAPELLOIS SD 55 1:21:09 05:48 10.35
380 8342 LEMAIRE CELINA   A1 20 1:21:10 05:48 10.35
381 8735 LOTIGIE GERY   V2 34 1:21:11 05:48 10.35
382 9279 CARBALLO CÉCILE COTRITH A2 6 1:21:12 05:48 10.34
383 8640 PRUVOST XAVIER   SH 161 1:21:15 05:48 10.34
384 9001 PIRENNE MAGALI   SD 56 1:21:17 05:48 10.33
385 9629 LAFONTAINE JÉRÔME FLUNCH V1 89 1:21:18 05:48 10.33
386 9450 LONGUET CAROLINE   A1 21 1:21:23 05:49 10.32
387 8102 SEGURRA FABRICE JOG IN REIMS V1 90 1:21:28 05:49 10.31
388 8063 VERWAERDE ÉMELINE ACCAPPELLOIS SD 57 1:21:29 05:49 10.31
389 8004 POHIER ALINE TEAM TRAIL AUDOM SD 58 1:21:30 05:49 10.31
390 8294 D'ARCANO ISABELLE   SD 59 1:21:31 05:49 10.30
391 9628 GAUTHIER AURIANE   SD 60 1:21:33 05:50 10.30
392 8100 DEVAUX CLAIRE   SD 61 1:21:37 05:50 10.29
393 8970 RAMON PASCAL   V1 91 1:21:41 05:50 10.28
394 9604 BOURGUELLE JEAN LUC   V2 35 1:21:43 05:50 10.28
395 9607 BELLET AXEL   SH 162 1:21:44 05:50 10.28
396 8538 GAL FLORENT   SH 163 1:21:46 05:50 10.27
397 8619 IMOULOUDENE HASSAN   V1 92 1:21:50 05:51 10.26
398 9189 BARBIER MÉLANIE CAP BEAURAING SD 62 1:21:51 05:51 10.26
399 9826 NR 9826   xxx   1:21:52 05:51 10.26
400 8516 DELEPLANQUE GERALDINE   SD 63 1:21:52 05:51 10.26
401 9013 BAJUS ANNIE   A2 7 1:21:53 05:51 10.26
402 9014 BAJUS HUGUES   V2 36 1:21:53 05:51 10.26
403 9836 FRAPOLLI OLIVIER USBCO V1 93 1:21:54 05:51 10.26
404 9662 DELCOURT SYLVAIN   SH 164 1:21:57 05:51 10.25
405 9419 REGNIER MARIE-CÉCILE   A1 22 1:21:57 05:51 10.25
406 9635 BOURDEL AUDE EUROTUNNEL A1 23 1:22:00 05:51 10.24
407 8077 CLAVIEZ MATHILDE   SD 64 1:22:00 05:51 10.24
408 8348 DELEHAYE BRUNO PACCAP FOURNES SH 165 1:22:01 05:52 10.24
409 9839 NR 9839   xxx   1:22:01 05:52 10.24
410 9102 MARECHAL CHRISTOPHE   V1 94 1:22:01 05:52 10.24
411 9093 LABRIFFE LOUIS   SH 166 1:22:01 05:52 10.24
412 9094 VITALE JULIETTE   SD 65 1:22:01 05:52 10.24
413 8909 ORRIOLS CHARLOTTE   A1 24 1:22:04 05:52 10.24
414 9747 MASELIS CATHARINA   A2 8 1:22:08 05:52 10.23
415 9741 POULAIN BRUNO ASSOCIATION LES V3 6 1:22:09 05:52 10.22
416 8993 MANTEL PASCAL ASC CAP V2 37 1:22:09 05:52 10.22
417 8991 HENNINOT JEAN FRANCOIS ASC CAP V2 38 1:22:10 05:52 10.22
418 8142 LUBRET MATHILDE   SD 66 1:22:10 05:52 10.22
419 9203 NAVEZ DOMINIQUE CAP BEAURAING A1 25 1:22:11 05:52 10.22
420 9205 GOFFIN FABRICE CAP BEAURAING V2 39 1:22:12 05:52 10.22
421 9263 LESOT MATHIEU   SH 167 1:22:12 05:52 10.22
422 9713 DUMONT JEAN FRANCOIS   V1 95 1:22:21 05:53 10.20
423 8277 CAVRENNE FRÉDÉRIC   SH 168 1:22:25 05:53 10.19
424 8225 MAHIN MICHAEL   SH 169 1:22:25 05:53 10.19
425 9663 POUSSIN DAVID   V1 96 1:22:31 05:54 10.18
426 9368 ALBERT PATRICK   V2 40 1:22:35 05:54 10.17
427 8078 LECOMTE CELIA TEAM TRAIL GRAVE SD 67 1:22:37 05:54 10.17
428 9292 BALTAZAR NICOLAS   V2 41 1:22:37 05:54 10.17
429 8431 CAZENAVE PHILIPPE   V1 97 1:22:38 05:54 10.16
430 9554 LOISON MARC   V1 98 1:22:39 05:54 10.16
431 9806 JOLION FRÉDÉRIC   V1 99 1:22:40 05:54 10.16
432 8683 TREHOUX LUCIE   SD 68 1:22:41 05:54 10.16
433 9746 DUPONT GUILLAUME   V1 100 1:22:42 05:54 10.16
434 9813 MARCOTTE MICHEL   V1 101 1:22:42 05:54 10.16
435 8842 JEUNEHOMME THOMAS   JH 10 1:22:43 05:55 10.15
436 9515 HOGGE ADRIEN   JH 11 1:22:43 05:55 10.15
437 8523 ISAMBERT PASCAL   V1 102 1:22:44 05:55 10.15
438 9575 AUDOUIN CHRISTOPHE   V2 42 1:22:44 05:55 10.15
439 9212 ROUZE AUDE   SD 69 1:22:45 05:55 10.15
440 9356 CALLENS ALEXIS   V1 103 1:22:51 05:55 10.14
441 9350 PROUVOT NICOLAS   V1 104 1:22:52 05:55 10.14
442 8906 HONORE ANNE LES FOULÉES HOUP SD 70 1:22:52 05:55 10.14
443 8998 BOURLART BERTRAND   V1 105 1:22:55 05:55 10.13
444 9675 LASSELIN FRANK 1968 V2 43 1:22:55 05:55 10.13
445 9767 MARTIN ANGELIQUE FRERES BERNARD SD 71 1:22:56 05:55 10.13
446 8065 BERTIN AUBIN   SH 170 1:23:04 05:56 10.11
447 9260 DE BRABANDERE PIA   A2 9 1:23:04 05:56 10.11
448 8721 JOCKIN JULIE JUJU A1 26 1:23:05 05:56 10.11
449 8048 PEMEJA DOROTHEE   SD 72 1:23:06 05:56 10.11
450 9501 CASTEL JEAN   SH 171 1:23:10 05:56 10.10
451 9283 GASQUERES CEDRIC   SH 172 1:23:11 05:57 10.10
452 9229 CHRISTOPHE NOLF   V2 44 1:23:18 05:57 10.08
453 8800 PUSCEDDU VIRGILIO ASSURANCES VIRGI V2 45 1:23:20 05:57 10.08
454 8060 LEFEVRE STANYSLAS   JH 12 1:23:24 05:57 10.07
455 9653 FASTRES MICKAEL CAP BEAURAING SH 173 1:23:25 05:58 10.07
456 9076 MULLENDERS ELINE   JF 2 1:23:26 05:58 10.07
457 8362 DELVAL KEVIN   SH 174 1:23:30 05:58 10.06
458 9394 DEMEFFE LAURENT   SH 175 1:23:34 05:58 10.05
459 9650 MENET MARION   A1 27 1:23:34 05:58 10.05
460 9202 DELEU ISABELLE   A1 28 1:23:37 05:58 10.05
461 8273 LEVEQUE SOPHIE JOGGING CLUB BAU A2 10 1:23:37 05:58 10.05
462 9327 LEFEBVRE MÉLANIE RUNNINGHEM SD 73 1:23:44 05:59 10.03
463 8520 MASCART CYRILLE KEOLIS LILLE V1 106 1:23:46 05:59 10.03
464 8984 HENRY RODOLPHE   V2 46 1:23:46 05:59 10.03
465 9555 D'HAILLECOURT LUCY   JF 3 1:23:52 05:59 10.02
466 8509 GHESQUIÈRE BART   V2 47 1:23:54 06:00 10.01
467 8396 MICHEL LAURENT   V2 48 1:23:55 06:00 10.01
468 8872 NINITE ISABELLE NÉANT A1 29 1:24:02 06:00 10.00
469 8136 ARROYO FRANCÇOIS   V1 107 1:24:04 06:00 9.99
470 8076 BÉTRÉMA FLORENT   SH 176 1:24:04 06:00 9.99
471 8832 BLONDEL ROBERT NÉANT V2 49 1:24:06 06:00 9.99
472 8127 DELOUBRIERE MICHEL   V2 50 1:24:06 06:00 9.99
473 8837 NACKAERTS VINCENT   V1 108 1:24:07 06:01 9.99
474 8705 DELAHOUSSE FREDERIC US MARQUETTE V2 51 1:24:08 06:01 9.98
475 9803 FESTA CIRO   V1 109 1:24:09 06:01 9.98
476 8840 VAN DE VELDE KARINE   A1 30 1:24:11 06:01 9.98
477 9768 PIERRU AURELIEN   SH 177 1:24:16 06:01 9.97
478 8056 ROUZE CLEMENT   V1 110 1:24:20 06:01 9.96
479 8214 POISSONNIER GAËTAN   SH 178 1:24:26 06:02 9.95
480 8014 GAESTEL OLIVIER   SH 179 1:24:26 06:02 9.95
481 9342 TENRET VIRGINIE   SD 74 1:24:29 06:02 9.94
482 9051 DEFLANDRE CAROLE LES FURIEUX DE L A2 11 1:24:31 06:02 9.94
483 9755 RADOVANOVIC IVANN   SH 180 1:24:41 06:03 9.92
484 8694 CUVILLIER HÉLÈNE   SD 75 1:24:43 06:03 9.91
485 8696 CUVILLIER LAURA   SD 76 1:24:43 06:03 9.91
486 9449 HATTIEZ RENAUD   V1 111 1:24:45 06:03 9.91
487 8706 DELAHOUSSE FLORENCE   A1 31 1:24:46 06:03 9.91
488 9305 PHILIPPO YANNIS   SH 181 1:24:47 06:03 9.91
489 9255 VANLANDSCHOOT PIERRE   SH 182 1:24:52 06:04 9.90
490 9483 DUPUY BENOIST ASSOCIATION LES V1 112 1:24:53 06:04 9.90
491 8266 TASSOU CAPUCINE   A1 32 1:24:55 06:04 9.89
492 8427 DELATTRE MAUD   SD 77 1:24:56 06:04 9.89
493 8770 MARLIER BÉATRICE NÉANT A1 33 1:24:57 06:04 9.89
494 9016 DEMEESTÈRE MARC-ANTOINE   SH 183 1:25:05 06:05 9.87
495 8682 HENNEBERT NADEGE   A1 34 1:25:08 06:05 9.87
496 8768 GARDIN MATHILDE NÉANT SD 78 1:25:14 06:05 9.85
497 8722 DEFFERNEZ DIDIER   V2 52 1:25:15 06:05 9.85
498 8081 RENIER OLIVIER CLUB FIT CENTER V2 53 1:25:17 06:06 9.85
499 8129 DEGAUQUIER GEORGES   SH 184 1:25:25 06:06 9.83
500 8938 PORTIER THOMASSIN UGO   SH 185 1:25:27 06:06 9.83
501 9041 DEBOSSCHER ANDRÉ   V3 7 1:25:29 06:06 9.83
502 8103 VOELCKER STEPHAN   V1 113 1:25:36 06:07 9.81
503 9454 SANTARSIERE RAFFAELLA   SD 79 1:25:36 06:07 9.81
504 8191 CANLER JEAN-CHRISTOPHE   V1 114 1:25:38 06:07 9.81
505 8510 LEROUGE BENJAMIN   V1 115 1:25:42 06:07 9.80
506 8672 DE KOCK CHARLOTTE VERTIGO A1 35 1:25:50 06:08 9.79
507 9523 HEUX YOANN   SH 186 1:25:51 06:08 9.78
508 8598 WATINE HELOISE   SD 80 1:25:53 06:08 9.78
509 8108 IBAR MATTHIAS   SH 187 1:25:56 06:08 9.77
510 8581 PERRIN LISE   SD 81 1:25:58 06:08 9.77
511 8320 BOURNONVILLE FABRICE   V1 116 1:25:59 06:09 9.77
512 10413 HENROT GERALDINE   A1 36 1:25:59 06:09 9.77
513 8301 REMY JUSTINE   SD 82 1:26:03 06:09 9.76
514 8617 GÉRARD SÉBASTIEN   SH 188 1:26:04 06:09 9.76
515 8249 SENECHAL EMILIE   A1 37 1:26:05 06:09 9.76
516 9372 CAMBIER BÉATRICE   A2 12 1:26:06 06:09 9.76
517 9807 CULIANEZ JEAN-BAPTISTE GROUPE EMPLIO SH 189 1:26:06 06:09 9.76
518 9808 KREMER BLAISE GROUPE EMPLIO V1 117 1:26:07 06:09 9.75
519 9261 DE BRETAGNE MARIE   SD 83 1:26:07 06:09 9.75
520 9297 BOUSSEKEY SEVERINE   A1 38 1:26:15 06:10 9.74
521 8622 SAUDEMONT HUGUES MC RUNNING TEAM V1 118 1:26:16 06:10 9.74
522 8860 PARENT CEDRIC   V1 119 1:26:20 06:10 9.73
523 9722 OCQUET JULIEN   SH 190 1:26:22 06:10 9.73
524 8254 MIGNIEN JEAN-BAPTISTE   SH 191 1:26:23 06:10 9.72
525 8766 DE PESTEL HÉLÈNE NÉANT A2 13 1:26:24 06:10 9.72
526 8839 BOUZON CAROLINE   A1 39 1:26:27 06:11 9.72
527 8141 LEBRUN JEAN LOUIS   V2 54 1:26:33 06:11 9.70
528 9373 MOREAU ALICE   SD 84 1:26:34 06:11 9.70
529 8045 IBAR VALÉRIANE   SD 85 1:26:34 06:11 9.70
530 8659 PICARD ANTHONY   SH 192 1:26:36 06:11 9.70
531 9832 DELANGRE MARIE   SD 86 1:26:38 06:11 9.70
532 9844 BELHADJI SAIDA   SD 87 1:26:39 06:11 9.69
533 8013 TELLIER JULIETTE   SD 88 1:26:43 06:12 9.69
534 9235 HÉNON LEMANSKI DELPHINE   A1 40 1:26:43 06:12 9.69
535 8390 MOROIS AURÉLIE JOG IN REIMS A1 41 1:26:48 06:12 9.68
536 9237 GALTIER SOPHIE   SD 89 1:26:52 06:12 9.67
537 9712 REMÉRAND JULIEN   V1 120 1:27:00 06:13 9.65
538 8206 ANSCIAUX GUILLAUME   SH 193 1:27:09 06:14 9.64
539 8580 DELEGRANGE MATTHIEU   SH 194 1:27:10 06:14 9.64
540 9012 FACQ ESTELLE J'EN AI DÉJÀ PRI A1 42 1:27:10 06:14 9.64
541 9011 MUDRY ALICE J'EN AI DÉJÀ PRI SD 90 1:27:10 06:14 9.64
542 9062 FACQ MATTHIEU MEME À GENOUX JE SH 195 1:27:10 06:14 9.64
543 8317 ANTOINE GABRIELLE   SD 91 1:27:16 06:14 9.63
544 9097 VIALARON EMILIE   SD 92 1:27:23 06:15 9.61
545 9118 VISEUX DOROTHEE   SD 93 1:27:25 06:15 9.61
546 8027 RYCKEBUSH JULIETTE   A1 43 1:27:27 06:15 9.60
547 9064 DESMARETS JEAN-CHRISTOPHE   V2 55 1:27:28 06:15 9.60
548 8698 MEUNIER DIMITRI   V1 121 1:27:33 06:15 9.59
549 8959 DI PISA LORENZO   SH 196 1:27:34 06:15 9.59
550 8815 PICHOT BENOIT   SH 197 1:27:35 06:15 9.59
551 9574 PRAT PATRICE   V1 122 1:27:36 06:15 9.59
552 8084 FLAHAUT STESSY   SD 94 1:27:37 06:16 9.59
553 9190 HORLANCE XAVIER   V2 56 1:27:41 06:16 9.58
554 9771 MENA JULIEN   SH 198 1:27:42 06:16 9.58
555 9065 DESMARETS VÉRONIQUE   A1 44 1:27:44 06:16 9.57
556 8532 SINET CATHERINE TEAM MESNIL A1 45 1:27:47 06:16 9.57
557 9316 JEAN-CHARLES PASCALE   SD 95 1:27:49 06:16 9.56
558 8444 NAJDA AURELIE FOULEE PONT A MA SD 96 1:27:50 06:16 9.56
559 8164 KODER JONATHAN   SH 199 1:27:50 06:16 9.56
560 8518 LEJEUNE MATHILDE   SD 97 1:27:55 06:17 9.55
561 9132 PIRET ENZO CHARLEVILLE MEZI SH 200 1:27:55 06:17 9.55
562 8305 BOISTARD VIRGINIE LES FOUFOUS SD 98 1:27:55 06:17 9.55
563 8517 LEJEUNE LUC TCM62 V1 123 1:27:56 06:17 9.55
564 8650 LE FRANCOIS AURELIE   SD 99 1:27:59 06:17 9.55
565 9652 PARDESSUS VINCIANE   A2 14 1:27:59 06:17 9.55
566 8719 OA KARLA   SD 100 1:28:01 06:17 9.54
567 9144 CANON OLIVIER   V1 124 1:28:01 06:17 9.54
568 9112 DUBOIS CHARLOTTE   SD 101 1:28:05 06:18 9.54
569 9463 GUILLIER CÉLINE   A1 46 1:28:06 06:18 9.53
570 8964 FREJAVILLE EMILIE   SD 102 1:28:10 06:18 9.53
571 8242 CATRYSSE CÉCILE   SD 103 1:28:10 06:18 9.53
572 8066 LACHERE SANDRINE   SD 104 1:28:20 06:19 9.51
573 9180 LAMBLIN HUGO   SH 201 1:28:21 06:19 9.51
574 9352 MOULIN ROMAIN   SH 202 1:28:24 06:19 9.50
575 8352 MASSET SÉBASTIEN   V1 125 1:28:25 06:19 9.50
576 8379 ROUSSEL CELINE   SD 105 1:28:29 06:19 9.49
577 9178 LAMBLIN LUCIE   SD 106 1:28:30 06:19 9.49
578 9047 BRIAUX CHRISTINE LES FURIEUX DE L A2 15 1:28:35 06:20 9.48
579 8744 LECLERCQ YANNICK   V1 126 1:28:36 06:20 9.48
580 9233 DAUTHIEU CATHY COURRIERES A1 47 1:28:37 06:20 9.48
581 9751 DEHAME ADRIEN   SH 203 1:28:39 06:20 9.47
582 9136 LEROY AUDREY   SD 107 1:28:40 06:20 9.47
583 9124 TOFFANIN NATACHA QUEVY RUN A1 48 1:28:44 06:20 9.47
584 8174 LEMORT RUDY   SH 204 1:28:45 06:20 9.46
585 9453 DE SANCTIS MATTEO   SH 205 1:28:46 06:20 9.46
586 9570 CAMBIER MATHÉO   SH 206 1:28:55 06:21 9.45
587 8776 BOGAERT CHRISTINE ACKO A1 49 1:28:56 06:21 9.44
588 9227 CAMBIER HERVÉ   V2 57 1:29:00 06:21 9.44
589 9682 MARTEL RODOLPHE   SH 207 1:29:02 06:22 9.43
590 9840 GAUGUERY EWA   A2 16 1:29:05 06:22 9.43
591 9679 LEMAIRE ROMAIN   SH 208 1:29:05 06:22 9.43
592 8553 CAUDRON CELINE   SD 108 1:29:06 06:22 9.43
593 8782 BERTRAND JULIETTE   SD 109 1:29:06 06:22 9.43
594 9175 BOURGOIS OLIVIER   V2 58 1:29:07 06:22 9.43
595 9197 LEBAS FRANCK   V1 127 1:29:07 06:22 9.43
596 9179 LAMBLIN JULIA   SD 110 1:29:08 06:22 9.42
597 8178 VIGNE MICHAEL   SH 209 1:29:08 06:22 9.42
598 8154 MICHEE NATHALIE   A1 50 1:29:10 06:22 9.42
599 8259 DUCROCQ SOLINE   JF 4 1:29:10 06:22 9.42
600 9309 DESTAILLEUR STEPHANIE   SD 111 1:29:11 06:22 9.42
601 9633 DUMORTIER PHILIPPE   V3 8 1:29:11 06:22 9.42
602 9462 DILIBERTO LUDIVINE   SD 112 1:29:13 06:22 9.41
603 9461 GLAUDEL DOROTHÉE   A1 51 1:29:13 06:22 9.41
604 8397 GERARD PHILIPPE   V2 59 1:29:14 06:22 9.41
605 8741 JANSSEN ARLETTE   A1 52 1:29:16 06:23 9.41
606 8219 PROTIN EMILIE   SD 113 1:29:17 06:23 9.41
607 8034 DEVAUX ERIC   V2 60 1:29:17 06:23 9.41
608 8738 BAETEN ANNICK REMI'COURT A1 53 1:29:18 06:23 9.41
609 9526 LAURENCE WOLFF   A1 54 1:29:18 06:23 9.41
610 9634 DUMORTIER HÉLÈNE   SD 114 1:29:19 06:23 9.40
611 8318 CULOT MATHIS JCPMF FOSSES LA JH 13 1:29:19 06:23 9.40
612 8434 MARKEY ANTOINE   SH 210 1:29:24 06:23 9.40
613 8889 RAMERY ODILE   A2 17 1:29:28 06:23 9.39
614 8936 ST AUBERT JUSTINE   SD 115 1:29:33 06:24 9.38
615 9533 MIALET ALEXANDRA   SD 116 1:29:33 06:24 9.38
616 9008 LEFEBVRE MADELEINE   A2 18 1:29:34 06:24 9.38
617 9471 DELILLE CLAIRE   SD 117 1:29:34 06:24 9.38
618 9006 DAUDIER DE CASSINI VALERIE   A2 19 1:29:34 06:24 9.38
619 9171 FLIPO CEDRIC   SH 211 1:29:37 06:24 9.37
620 9423 MOLLET SANDRA 1982 SD 118 1:29:38 06:24 9.37
621 9225 JACQUOT MATHILDE FOULEE PONT A MA SD 119 1:29:38 06:24 9.37
622 8231 JOISSAINS SABRINA TEAM MESNIL A1 55 1:29:43 06:25 9.36
623 8870 GILLAIN JEAN-YVES   V1 128 1:29:52 06:25 9.35
624 9411 PIETTE BERNANRD RCB V3 9 1:29:53 06:25 9.34
625 9201 DELEU MANON   SD 120 1:29:59 06:26 9.33
626 9867 WATTINNE CHARLOTTE   A1 56 1:30:01 06:26 9.33
627 9748 WATTRELOS ALBERT   V1 129 1:30:02 06:26 9.33
628 8209 CHEVANNE ANNIE   A3 1 1:30:04 06:26 9.33
629 9335 TRENTESAUX MARIE   SD 121 1:30:05 06:26 9.32
630 9340 TRENTESAUX BASTIEN   V1 130 1:30:05 06:26 9.32
631 8710 BRISMEE CHARLOTTE   SD 122 1:30:05 06:26 9.32
632 9539 HALLAERT CHRISTOPHE   V1 131 1:30:07 06:26 9.32
633 8736 COLLETTE JEAN   SH 212 1:30:09 06:26 9.32
634 8637 SUAIN FLORENCE LES GUMPETTES A1 57 1:30:11 06:27 9.31
635 8879 DANLY FLORENCE LES GUMPETTES SD 123 1:30:11 06:27 9.31
636 9686 BONNIERE CAROLINE   A1 58 1:30:19 06:27 9.30
637 8908 ORRIOLS JEAN FRANCOIS   V1 132 1:30:20 06:27 9.30
638 9382 JEANPIERRE AURÉLIE   SD 124 1:30:34 06:28 9.27
639 8018 MONTEUUIS CORINNE   A2 20 1:30:36 06:28 9.27
640 8745 RAHMOUNI JAMILA   A1 59 1:30:36 06:28 9.27
641 8748 RASSEL ALBINE   A1 60 1:30:47 06:29 9.25
642 8747 BEGHIN YVES   V2 61 1:30:47 06:29 9.25
643 8388 NISSE JULIETTE   A1 61 1:30:56 06:30 9.24
644 8389 HERLANT STÉPHANIE   A1 62 1:30:57 06:30 9.24
645 8579 CRABBE NATHALIE CLUB LES GUMPETT A1 63 1:31:00 06:30 9.23
646 9488 GALLET MAXIME FOOTING CLUB DE V3 10 1:31:00 06:30 9.23
647 8805 SIBILE MATHILDE   SD 125 1:31:00 06:30 9.23
648 8261 SPENDER STEPHANE LRT V2 62 1:31:02 06:30 9.23
649 9477 FRAMERY NICOLAS AS LFB SH 213 1:31:04 06:30 9.22
650 8868 DEMOULIN SYLVIA   A1 64 1:31:05 06:30 9.22
651 9031 NEUVILLE PIERRE   V2 63 1:31:05 06:30 9.22
652 8688 BROOTCORNE ISABELLE VERTIGO A2 21 1:31:06 06:30 9.22
653 8883 TETELIN EMMANUELLE SERVINS AC A1 65 1:31:06 06:30 9.22
654 8576 FAUCOMPRÉ REMI   SH 214 1:31:10 06:31 9.21
655 9379 OUGHALIME HOCINE   SH 215 1:31:10 06:31 9.21
656 9791 LHARMINEZ LAURENT TEAM LMC V2 64 1:31:11 06:31 9.21
657 9018 SZYMKOWIAK ISABELLE   SD 126 1:31:18 06:31 9.20
658 8897 DELCOURT VIOLAINE   SD 127 1:31:19 06:31 9.20
659 9123 PERNIAUX CHARLES JE COURS A INCOU V2 65 1:31:25 06:32 9.19
660 9128 LORIDAN CAMILLE HARDELOT BEACH SD 128 1:31:29 06:32 9.18
661 9829 HALLEZ SIMON   SH 216 1:31:31 06:32 9.18
662 9366 GANDON MAITA   SD 129 1:31:39 06:33 9.16
663 9164 CAMBRAY LAURENT   V1 133 1:31:42 06:33 9.16
664 9740 DELBECQUE LAURE   SD 130 1:31:48 06:33 9.15
665 9365 COGET ZOÉ   SD 131 1:31:51 06:34 9.14
666 8835 TOURBIER LAËTITIA CE TRANSPOLE SD 132 1:31:52 06:34 9.14
667 9667 SINGRE CATHY   A1 66 1:31:54 06:34 9.14
668 9666 VIDAUD FRÉDÉRIC   V2 66 1:31:54 06:34 9.14
669 9668 LEQUARRE NATHALIE   A1 67 1:31:54 06:34 9.14
670 9738 ZEMMOUR HELENE   A1 68 1:31:57 06:34 9.13
671 9198 BRUSSELLE LEO   SH 217 1:31:58 06:34 9.13
672 9222 DERBESSE GAELLE   A1 69 1:31:59 06:34 9.13
673 8636 QUAYLE JULIEN   SH 218 1:32:01 06:34 9.13
674 8841 DESCAMPS MAXIME   SH 219 1:32:04 06:35 9.12
675 8873 VIANE SIMON   SH 220 1:32:11 06:35 9.11
676 8813 VANDENBROUCKE ANNE-LAURE   SD 133 1:32:15 06:35 9.11
677 9390 DELEMARLE JULIEN   V1 134 1:32:16 06:35 9.10
678 8885 BERTIN PIERRE   V2 67 1:32:16 06:35 9.10
679 8886 BERTIN THIBAUT   SH 221 1:32:16 06:35 9.10
680 8814 VANDENBROUCKE FLORE   SD 134 1:32:22 06:36 9.09
681 9115 COLICHE VLADIMIR   SH 222 1:32:22 06:36 9.09
682 9834 HOUTEER JUSTINE   SD 135 1:32:30 06:36 9.08
683 8220 WEYTSMAN SÉBASTIEN   V1 135 1:32:33 06:37 9.08
684 8344 JACQUES JEREMY   SH 223 1:32:37 06:37 9.07
685 8519 HAMEAU JÉRÔME   V1 136 1:32:38 06:37 9.07
686 8655 DEMOUTIER GILLES   SH 224 1:32:38 06:37 9.07
687 9493 TRENTESAUX MARTINE   SD 136 1:32:41 06:37 9.06
688 8811 VERHILLE HELENE   A1 70 1:32:42 06:37 9.06
689 8511 COURCHELLE SUZON   SD 137 1:32:42 06:37 9.06
690 8746 POULLET NICOLAS   V1 137 1:32:46 06:38 9.05
691 9399 GASPARDO SYLVIE   A1 71 1:32:57 06:38 9.04
692 8850 GUINET LAETITIA   A1 72 1:32:58 06:38 9.04
693 9142 TRONET SÉBASTIEN   SH 225 1:32:59 06:39 9.03
694 9685 BONDUELLE NATHALIE   A1 73 1:33:01 06:39 9.03
695 8265 DENYS SARAH COACH RUNNING A1 74 1:33:04 06:39 9.03
696 9823 KIMPE VALÉRIE   A1 75 1:33:21 06:40 9.00
697 8453 BURNOD RÉMY   SH 226 1:33:28 06:41 8.99
698 8716 CARPENTIER BERENGERE   A1 76 1:33:28 06:41 8.99
699 8451 MARICHAL ALEXE   SD 138 1:33:33 06:41 8.98
700 9448 DUJARDIN JONATHAN   SH 227 1:33:38 06:41 8.97
701 8350 DUHAMEL MAGALIE   A1 77 1:33:46 06:42 8.96
702 9560 HAGRON STÉPHANIE   A1 78 1:33:52 06:42 8.95
703 9559 VALLEE-GIRARDIN ANNE-LORRAINE   A1 79 1:33:52 06:42 8.95
704 9632 LEVEILLE NIZEROLLE VALENTINE EUROTUNNEL SD 139 1:33:55 06:43 8.94
705 9053 COLICHE ANTONIN   V1 138 1:33:57 06:43 8.94
706 9658 DERMENGHEM NICOLAS   SH 228 1:33:58 06:43 8.94
707 8229 SAILLY CHRISTOPHE   SH 229 1:34:06 06:43 8.93
708 9478 PAGET TIFFANY   SD 140 1:34:08 06:43 8.92
709 9479 BULTEAU COLINE   SD 141 1:34:11 06:44 8.92
710 8439 DECOEYERE EMMANUEL CAPUCHE TEAM V2 68 1:34:16 06:44 8.91
711 8603 ALLENDER OLIVIER   V1 139 1:34:16 06:44 8.91
712 7392 JANSON SABRINA   A1 80 1:34:16 06:44 8.91
713 8415 DERYM FRANCOIS QUESNOY POUR TOU V1 140 1:34:18 06:44 8.91
714 8414 CARRON AURELIE SC BRIE COMTE RO SD 142 1:34:19 06:44 8.91
715 8416 BAUW CLÉMENT   SH 230 1:34:20 06:44 8.90
716 9220 MAHIEU VALÉRIE   A1 81 1:34:21 06:44 8.90
717 9274 DERYCKX BRUNO   V2 69 1:34:24 06:45 8.90
718 8712 ATTAGNANT VERONIQUE RC ARRAS A2 22 1:34:31 06:45 8.89
719 9503 VARLET SÉVERINE   SD 143 1:34:35 06:45 8.88
720 9651 PARDESSUS OLIVIER   V2 70 1:34:36 06:45 8.88
721 9284 DEJONCKEERE MARJORIE   SD 144 1:34:36 06:45 8.88
722 9655 LEGRAND MARINE FLUNCH SD 145 1:34:38 06:46 8.88
723 9616 DESCAMPS OLIVIER FLUNCH V1 141 1:34:38 06:46 8.88
724 9606 POISSONIER CLAIRE   SD 146 1:34:39 06:46 8.87
725 8469 MORELLE DELPHINE   A1 82 1:34:44 06:46 8.87
726 9275 VERMEILLE JOHANN   V1 142 1:34:45 06:46 8.86
727 8208 CHEVANNE PHILIPPE   V3 11 1:34:45 06:46 8.86
728 9250 VANSTAPEL CAROLINE   SD 147 1:34:53 06:47 8.85
729 9370 BROWAEYS JUSTINE   SD 148 1:34:58 06:47 8.84
730 9504 RAVIART MÉLANIE   SD 149 1:34:59 06:47 8.84
731 8997 BORLON PHILIPPE LES APEROS DU MA V1 143 1:34:59 06:47 8.84
732 9257 DEMEFFE LAURENT LES APÉROS DU MA SH 231 1:34:59 06:47 8.84
733 9476 LEGRAND VALERIE   A1 83 1:35:00 06:47 8.84
734 8011 DAICHE OLIVIER RUN FLY V1 144 1:35:01 06:47 8.84
735 8264 SALIN PEGGY HEM ATHLETIC CLU A1 84 1:35:03 06:47 8.84
736 9659 DERMENGHEM SOPHIE   SD 150 1:35:05 06:48 8.83
737 8989 FERNANDEZ EMILIE   SD 151 1:35:18 06:48 8.81
738 9073 BENJAMIN BERTRAND   V2 71 1:35:18 06:48 8.81
739 8806 COPPIN QUENTIN   SH 232 1:35:21 06:49 8.81
740 8808 DEFOSSE FRÉDÉRIC   V2 72 1:35:21 06:49 8.81
741 9460 ESTRANGIN CLODET CLAIRE   SD 152 1:35:24 06:49 8.80
742 8347 SLIMANE MOUFIDA HEM ATHLETIC CLU A2 23 1:35:25 06:49 8.80
743 8177 BERTHES CHARLOTTE   SD 153 1:35:25 06:49 8.80
744 9038 YOUNSI THEO   JH 14 1:35:29 06:49 8.80
745 8549 BAGLIN GREGOIRE   SH 233 1:35:30 06:49 8.80
746 9121 CALAIS GAUTHIER   V1 145 1:35:30 06:49 8.80
747 8467 DELRUE ANGELIQUE   SD 154 1:35:32 06:49 8.79
748 9264 MAZÉ MARGAUX   SD 155 1:35:33 06:50 8.79
749 9082 ACHTE STÉPHANE   V1 146 1:35:35 06:50 8.79
750 8551 GIRLOT JULIE JCPMF SD 156 1:35:36 06:50 8.79
751 8544 FINFE GÉRALDINE JCPMFFLV SD 157 1:35:36 06:50 8.79
752 8417 LEVANNIER CAROLINE   SD 158 1:35:37 06:50 8.78
753 9793 TRENTESAUX GEOFFREY TEAM LMC V1 147 1:35:40 06:50 8.78
754 8905 TELLIER CESAR   SH 234 1:35:42 06:50 8.78
755 9270 NEMPON JULIEN   SH 235 1:35:44 06:50 8.77
756 9383 VANDEPLANQUE ALBANE   JF 5 1:35:51 06:51 8.76
757 8484 VANOOTEGHEM FABIEN ETM V2 73 1:35:52 06:51 8.76
758 9169 LECRENIER PATRICIA JCPMFFLV A2 24 1:35:56 06:51 8.76
759 8854 VANMOORLEGHEM EMILIE LES ÉCLATÉS PÉRU SD 159 1:35:56 06:51 8.76
760 9657 ROBIQUET VINCENT   SH 236 1:35:57 06:51 8.75
761 9312 MAIGNON ALICE   SD 160 1:35:57 06:51 8.75
762 8079 SAVET ALEXANDRE   SH 237 1:36:00 06:51 8.75
763 8862 PAPILLON XAVIER   V2 74 1:36:01 06:52 8.75
764 9176 QUINDROIT LAURENCE   A1 85 1:36:20 06:53 8.72
765 8260 PARIS ALAIN   V2 75 1:36:27 06:53 8.71
766 9594 MUNGIOVI ROSARIO   V2 76 1:36:38 06:54 8.69
767 9718 POIRET THIERRY GROUPE EMPLIO V2 77 1:36:40 06:54 8.69
768 9725 BAYART DAMIEN GROUPE EMPLIO SH 238 1:36:40 06:54 8.69
769 9249 BAUDET LUDOVIC   V1 148 1:36:41 06:54 8.69
770 8620 CLAEYS CHARLOTTE   A1 86 1:36:42 06:54 8.69
771 9475 VASSEUR HERVE   V2 78 1:36:48 06:55 8.68
772 9474 VASSEUR EMMANUELLE   A2 25 1:36:48 06:55 8.68
773 9329 LELIEVRE AURORE   SD 161 1:37:09 06:56 8.65
774 8190 DUPRET CAROLE ESA MARPENT A1 87 1:37:10 06:56 8.64
775 8151 HENAUT CATHY   A1 88 1:37:11 06:57 8.64
776 9772 TRANAIN LAURENT JOBCOP V2 79 1:37:12 06:57 8.64
777 9516 PAGNIEZ CAROLINE   SD 162 1:37:13 06:57 8.64
778 8654 DE MEESTER INES   SD 163 1:37:15 06:57 8.64
779 9495 GALLET MARIE   SD 164 1:37:15 06:57 8.64
780 8156 DELCENSERIE ELODIE ASSOCIATION DES SD 165 1:37:18 06:57 8.63
781 8308 MOTTE ARNAULD   V2 80 1:37:28 06:58 8.62
782 8307 MOTTE ALISON   SD 166 1:37:30 06:58 8.61
783 8849 DEMAN LAURE LES ÉCLATÉS PÉRU SD 167 1:37:31 06:58 8.61
784 9307 TEMPLEMENT STEPHANIE HEMAC A2 26 1:37:32 06:58 8.61
785 8321 SELLIER GAUDERIC   SH 239 1:37:33 06:58 8.61
786 8781 FONTAINE LUCIE HUY JE COURS PAR SD 168 1:37:33 06:58 8.61
787 9831 PAQUE ELODIE   SD 169 1:37:34 06:58 8.61
788 8851 MARTROYE LINE LES ÉCLATÉS PÉRU SD 170 1:37:35 06:58 8.61
789 8853 SANDERS JULIEN   SH 240 1:37:36 06:58 8.61
790 9029 STIENSMA ERIC WPRC V2 81 1:37:36 06:58 8.61
791 8789 LE GALL MARION RUNNINGHEM SD 171 1:37:37 06:58 8.60
792 8717 MASSET MARINE   SD 172 1:37:37 06:58 8.60
793 8733 MELCHERS MARTINE WATT FOOTING A2 27 1:37:41 06:59 8.60
794 8957 REBOURCET JULIEN   SH 241 1:37:45 06:59 8.59
795 9815 COTON DOMINIQUE   V2 82 1:37:46 06:59 8.59
796 8895 BOYARD PATRICK   V2 83 1:37:47 06:59 8.59
797 8409 PERRY BENOIT   V1 149 1:37:48 06:59 8.59
798 8803 DELECOEUILLERIE CELINE BAC SD 173 1:37:48 06:59 8.59
799 9381 PHILIPSON NINA   SD 174 1:38:01 07:00 8.57
800 8689 PEAN DE PONFILLY OLIVIER   V2 84 1:38:02 07:00 8.57
801 8690 DELCROIX JULIETTE   SD 175 1:38:02 07:00 8.57
802 9728 BARTIER BERENGERE GROUPE EMPLIO SD 176 1:38:08 07:01 8.56
803 8633 OGNIBENE CHARLOTTE   SD 177 1:38:09 07:01 8.56
804 9792 LHARMINEZ KARINE TEAM LMC A1 89 1:38:10 07:01 8.56
805 9641 MARIE PAUL   SH 242 1:38:10 07:01 8.56
806 9730 BENY ARNAUD GROUPE EMPLIO V3 12 1:38:14 07:01 8.55
807 9780 DELEVOYE YVONNE   A1 90 1:38:19 07:01 8.54
808 8635 WAEGEBAERT XAVIER RUN AND BIKE BAC V1 150 1:38:21 07:02 8.54
809 9090 CHEVALIER MYRIAM   A2 28 1:38:22 07:02 8.54
810 9600 GARCIA NATACHA   A1 91 1:38:26 07:02 8.53
811 9610 BUTRUILLE CYPRIEN LESTYRANNOSAURES V1 151 1:38:29 07:02 8.53
812 9680 PETIT HELENE FLUNCH A1 92 1:38:30 07:02 8.53
813 8262 SPENDER VALERIE LRT A2 29 1:38:31 07:02 8.53
814 8332 DELOBELLE ISABELLE LRT A2 30 1:38:31 07:02 8.53
815 8587 XHONNEUX ERIC   V2 85 1:38:32 07:02 8.52
816 9143 TRONET ESTELLE   SD 178 1:38:34 07:02 8.52
817 8876 COLSON HELENE   SD 179 1:38:35 07:03 8.52
818 8181 MARIAGE DELPHINE   SD 180 1:38:36 07:03 8.52
819 8875 CLERET SOPHIE   SD 181 1:38:37 07:03 8.52
820 8584 JASKOLSKI AMANDINE   SD 182 1:38:50 07:04 8.50
821 9432 VALLIER ALEXANDRE LABORATOIRE RENA SH 243 1:38:54 07:04 8.49
822 8825 DESCAMPS LUCILE   SD 183 1:39:31 07:07 8.44
823 9302 FORTIN TIMOTHEE   V1 152 1:39:32 07:07 8.44
824 8600 SAUNIER PRISCILLA   A1 93 1:39:34 07:07 8.44
825 9376 MARTIN WILLIAM   SH 244 1:39:34 07:07 8.44
826 8323 BEQUET JEAN MARC   V2 86 1:39:36 07:07 8.43
827 8545 MICHEL LUDIVINE   SD 184 1:39:45 07:08 8.42
828 9303 DEMARCQ ALICE CAA SD 185 1:39:45 07:08 8.42
829 8546 KEGELS CÉCILE   SD 186 1:39:45 07:08 8.42
830 10959 ZELE YVES ASCA PEUGEOT POI V4 1 1:39:51 07:08 8.41
831 8175 PARDOUE CORALIE   SD 187 1:39:52 07:08 8.41
832 8255 DUFLO HÉLOÏSE   SD 188 1:39:53 07:08 8.41
833 8145 DEKOSTER PAULINE   SD 189 1:39:55 07:08 8.41
834 8441 LAUNOIS CLAIRE   SD 190 1:39:57 07:08 8.40
835 8588 LUCASSE MARIE-JOSEE LES MOTIVÉS DU M A2 31 1:39:58 07:08 8.40
836 8429 COULON GAEL   SH 245 1:39:59 07:09 8.40
837 8236 LHOMME FLORENCE   SD 191 1:40:00 07:09 8.40
838 8522 STASSAIN JEAN-MARC HUY JE COURT PAR V1 153 1:40:02 07:09 8.40
839 9024 DERVAUX CLAUDE PIPAIX V3 13 1:40:09 07:09 8.39
840 9087 TORRES ELISA   SD 192 1:40:09 07:09 8.39
841 8455 EVRARD CAROLINE RUNNING-SAFE SD 193 1:40:11 07:09 8.38
842 8454 PIRON DOMINIQUE JE COURS POUR MA V3 14 1:40:11 07:09 8.38
843 9763 GUILMAIN JEAN LDLV V3 15 1:40:21 07:10 8.37
844 9546 LOUVEL STEPHANIE US CAMON A1 94 1:40:23 07:10 8.37
845 9547 ROLLE MELANIE US CAMON A1 95 1:40:23 07:10 8.37
846 8797 DEHON EMMANUEL VERTIGO V2 87 1:40:29 07:11 8.36
847 8668 BAJUS ERIC   V2 88 1:40:32 07:11 8.35
848 8666 BOUTERSKY LAURENCE   A2 32 1:40:32 07:11 8.35
849 8092 DELANSAY BERNARD   V2 89 1:40:38 07:11 8.35
850 8646 DUVIVIER CAROLINE   A1 96 1:40:41 07:12 8.34
851 9167 BODART CÉDRIC   SH 246 1:40:43 07:12 8.34
852 9591 GRUSLIN MANON   SD 194 1:40:45 07:12 8.34
853 9502 AREND VIRGINIE SER ATHL BELGIQU SD 195 1:40:53 07:12 8.33
854 9351 VAN CALSTER MICHELLE SERAING ATLÉTHIS A2 33 1:40:54 07:12 8.32
855 8091 DELANSAY VERONIQUE   A2 34 1:40:55 07:13 8.32
856 8847 NICOLETTI VIRGINIE LES ÉCLATÉS PÉRU SD 196 1:40:57 07:13 8.32
857 8284 WINDAL GWENAELLE BRANLOS4EVER SD 197 1:40:57 07:13 8.32
858 9228 COPPENOLLE AUDREY   A1 97 1:40:58 07:13 8.32
859 8597 CHARLIER DELPHINE   SD 198 1:41:04 07:13 8.31
860 10778 GREMONT STEPHANIE   A1 98 1:41:07 07:13 8.31
861 9830 DERNONCOURT VALERIE   A1 99 1:41:07 07:13 8.31
862 8919 FRANÇOIS RÉGINE URN A1 100 1:41:18 07:14 8.29
863 8341 GENICOT DAISY   A1 101 1:41:22 07:14 8.29
864 8122 POURRE NATHALIE   A1 102 1:41:23 07:15 8.28
865 9447 ALLAIN FABRICE   V1 154 1:41:23 07:15 8.28
866 9242 THOMAS ALICE   SD 199 1:41:24 07:15 8.28
867 9105 HANNEQUIN LAURA   SD 200 1:41:24 07:15 8.28
868 8952 ROY BAPTISTE   SH 247 1:41:34 07:15 8.27
869 8951 ROY FLORIANE   SD 201 1:41:35 07:15 8.27
870 9711 MERLIN JULIEN   SH 248 1:41:36 07:15 8.27
871 8222 MERCIER FREDERIC   SH 249 1:41:39 07:16 8.26
872 8298 LEQUENNE SANDRA PIPAIX A1 103 1:42:12 07:18 8.22
873 8299 MASURE JEAN-FRANÇOIS PIPAIX V1 155 1:42:12 07:18 8.22
874 9827 HEDIN NANCY   SD 202 1:42:17 07:18 8.21
875 9828 SABOT FANNY   SD 203 1:42:17 07:18 8.21
876 9801 SAILLY ROMAIN   SH 250 1:42:24 07:19 8.20
877 9800 HERBIN VIRGINIE   SD 204 1:42:24 07:19 8.20
878 8737 COLLETTE - LEURENT AGATHE   A1 104 1:42:26 07:19 8.20
879 9566 MORELLE MAXIME   SD 205 1:42:27 07:19 8.20
880 9567 MORELLE AMANDA   SD 206 1:42:27 07:19 8.20
881 8732 MELCHERS DAMIEN WATT FOOTING V3 16 1:42:31 07:19 8.19
882 8836 JANDRIN MICHEL   V3 17 1:42:34 07:20 8.19
883 8950 CRABBE CHRISTINE   A3 2 1:42:34 07:20 8.19
884 9599 MÖRSCH WALTER   V4 2 1:42:37 07:20 8.19
885 8653 ANDRY-CHEVALIER CATHERINE CABW NIVELLES BE A1 105 1:42:43 07:20 8.18
886 8491 GOZE CEDRIC   V1 156 1:42:47 07:21 8.17
887 8996 DEMARET FLORENCE ATHLÉ COURSE LOI A1 106 1:42:47 07:21 8.17
888 8515 DESNEUX MAGALI JE COURS POUR MA SD 207 1:42:55 07:21 8.16
889 8542 BOUCHEZ MURIEL JCPMFFLV SD 208 1:42:55 07:21 8.16
890 8240 MASSAUX ERIC   SH 251 1:43:03 07:22 8.15
891 8383 VENDRAMINI ELODIE   A1 107 1:43:08 07:22 8.14
892 9181 FICHEUR ALBAN   SH 252 1:43:08 07:22 8.14
893 8062 CALONNE MARIE HELENE   A2 35 1:43:11 07:22 8.14
894 8529 LIENARD ALINE   A1 108 1:43:18 07:23 8.13
895 8530 BERNIER AUDE   A1 109 1:43:19 07:23 8.13
896 8880 BAERT SONIA HEM ATHLETIC A1 110 1:43:20 07:23 8.13
897 8033 CRETON PATRICK   SH 253 1:43:23 07:23 8.12
898 9036 CARDON JEAN MARIE   V3 18 1:43:23 07:23 8.12
899 9672 DJAROUNE STEPHANIE TENNIS 2382477Y A1 111 1:43:28 07:23 8.12
900 9671 DJAROUNE FARID   V1 157 1:43:29 07:24 8.12
901 8724 STERCKEMAN PAULINE   SD 209 1:43:41 07:24 8.10
902 9485 SANDRON DOMINIQUE   V1 158 1:43:42 07:24 8.10
903 8871 BUISSET NATHALIE NÉANT A1 112 1:43:47 07:25 8.09
904 11629 NYBELEN MATHIEU   SH 254 1:43:47 07:25 8.09
905 8370 DELABY BLANDINE   A2 36 1:43:51 07:25 8.09
906 9584 DELLACHERIE VINCENT   V2 90 1:43:53 07:25 8.09
907 9583 DELLACHERIE MAGALI   A1 113 1:43:53 07:25 8.09
908 9498 WABLE EUGENIE   SD 210 1:43:54 07:25 8.08
909 9527 WABLE FELICIE   SD 211 1:43:54 07:25 8.08
910 9499 WABLE LAURENT   V2 91 1:43:54 07:25 8.08
911 8019 MONTEUUIS DOMINIQUE   V3 19 1:43:56 07:25 8.08
912 8867 DELVAL CLEMENT OSS SH 255 1:44:02 07:26 8.07
913 8487 GUESSAD ELIAS TEAM OSS SH 256 1:44:05 07:26 8.07
914 9033 HAUTSON LAURENT   V2 92 1:44:06 07:26 8.07
915 9615 DELIERS MARIE FRANCE ARTOIS ATHLETISM A1 114 1:44:23 07:27 8.05
916 9779 DELEVOYE LAURENT   V1 159 1:44:26 07:28 8.04
917 8632 CAPRON MICKAEL RUN AND BIKE BAC V1 160 1:44:26 07:28 8.04
918 9150 JADUTA TARAS   V1 161 1:44:29 07:28 8.04
919 8799 FOURNIER ANNE   A1 115 1:44:30 07:28 8.04
920 8153 HERLIN VIRGINIE   SD 212 1:44:32 07:28 8.04
921 8104 RIVELON PEGGY   A1 116 1:44:33 07:28 8.03
922 9238 PERRAULT CÉDRIC ETAPLES V1 162 1:44:33 07:28 8.03
923 9002 LEBLOND VENANCE   SD 213 1:44:42 07:29 8.02
924 9003 LEBLOND CASSANDRE   SD 214 1:44:43 07:29 8.02
925 9318 MALOT PHILIPPINE   SD 215 1:44:45 07:29 8.02
926 9773 MICHALON GWENAËLLE   SD 216 1:44:46 07:29 8.02
927 9774 DRAGO ALIENOR   SD 217 1:44:46 07:29 8.02
928 9247 THIRIEZ MARINE   SD 218 1:44:52 07:29 8.01
929 9586 VANMEIRHAEGHE AXELLE LABORATOIRE RENA SD 219 1:44:58 07:30 8.00
930 8152 BONDOIS LAURENCE   A2 37 1:45:02 07:30 8.00
931 9314 PIERRON LAURENCE   A1 117 1:45:03 07:30 8.00
932 8119 CORDIER HUGUES   SH 257 1:45:04 07:30 7.99
933 8651 VAN KALCK ESTELLE   A1 118 1:45:04 07:30 7.99
934 8280 GRAUX REGINE   A3 3 1:45:05 07:30 7.99
935 8113 GRONDAIN-DENYS PAMÉLA   SD 220 1:45:05 07:30 7.99
936 8404 HOMBRAIN JEAN-MARC   V1 163 1:45:12 07:31 7.98
937 9420 MARTIN VERONIQUE ARTOIS ATHLÉTISM SD 221 1:45:14 07:31 7.98
938 9496 COCQUEL JULIETTE COURIR A VERQUIN SD 222 1:45:15 07:31 7.98
939 9291 LURQUIN ARTHUR   SH 258 1:45:21 07:32 7.97
940 9288 LURQUIN BENOIT   V2 93 1:45:21 07:32 7.97
941 8433 MARKEY JULIE   JF 6 1:45:21 07:32 7.97
942 8399 BRES CAROLINE VILLENEUVE D ASC A1 119 1:45:24 07:32 7.97
943 8400 BILLAUD ANNE   A1 120 1:45:24 07:32 7.97
944 8676 PARENT JENIFER   A1 121 1:45:36 07:33 7.95
945 8310 GARBE FRANCOIS   V1 164 1:45:37 07:33 7.95
946 8569 LEPERS MARIE   SD 223 1:45:39 07:33 7.95
947 8311 GARBE BLANDINE   A1 122 1:45:39 07:33 7.95
948 8306 BLANCHET JUSTINE   SD 224 1:45:49 07:34 7.94
949 9253 BUTEL MAXIME   SH 259 1:45:56 07:34 7.93
950 9490 LEGAY DONATIENNE   A1 123 1:46:00 07:34 7.92
951 8010 QUENU PAULINE   SD 225 1:46:04 07:35 7.92
952 9846 VENNIN JEAN PHILIPPE   V2 94 1:46:04 07:35 7.92
953 8904 CAUVIN MARYLENE JCPMF LESSINES A1 124 1:46:10 07:35 7.91
954 8457 ARNOULD AURORE ARCH SD 226 1:46:13 07:35 7.91
955 8774 DELECLUSE EMMANUELLE   A1 125 1:46:15 07:35 7.91
956 8775 DELECLUSE LAURENT   V1 165 1:46:15 07:35 7.91
957 10307 CAPON CHRISTIAN   V2 95 1:46:20 07:36 7.90
958 9445 ALLAIN KARINE ACI DU PLESSIS B A1 126 1:46:22 07:36 7.90
959 9434 RENARD MURIEL LABORATOIRE RENA A1 127 1:46:23 07:36 7.90
960 9430 MUSCILLO MARINA LABORATOIRE RENA SD 227 1:46:27 07:36 7.89
961 8920 PARMENTIER TOM URN V1 166 1:46:29 07:36 7.89
962 8750 TROESCH LAURENCE   SD 228 1:46:43 07:37 7.87
963 8757 LARCIN EMMANUEL   V1 167 1:46:44 07:37 7.87
964 8406 BILLAUD PATRICE   V1 168 1:46:46 07:38 7.87
965 8458 FAMEREE CEDRIC   V1 169 1:46:47 07:38 7.87
966 9669 DELABUXIERE THOMAS   SH 260 1:46:47 07:38 7.87
967 9670 MERTZ VIRGINIE   SD 229 1:46:47 07:38 7.87
968 8276 LECOINTRE HUGO TEAM OSS SH 261 1:46:49 07:38 7.86
969 8386 POISSONNIER HELENE   A1 128 1:46:59 07:39 7.85
970 9553 LOISON STÉPHANIE   A1 129 1:47:04 07:39 7.85
971 8607 MATON CAROLINE COACH RUNNING A1 130 1:47:09 07:39 7.84
972 8408 FRANZEN THIBAUT TEAM OSS SH 262 1:47:23 07:40 7.82
973 8881 MEDEZ CHRISTIAN HUMANIS V2 96 1:47:31 07:41 7.81
974 9699 LESAGE AGATHE   SD 230 1:47:31 07:41 7.81
975 9696 HAVEZ THIBAULT   SH 263 1:47:31 07:41 7.81
976 8612 BENZIANI DJAMILA HEM ATHLETIC CLU A1 131 1:47:35 07:41 7.81
977 9285 MEKERKE ADÈLE   SD 231 1:47:36 07:41 7.81
978 9311 MEKERKE BLANDINE   A2 38 1:47:43 07:42 7.80
979 9295 MEKERKE FRANCOIS   V2 97 1:47:44 07:42 7.80
980 8202 AZANNE CATHERINE   A2 39 1:47:47 07:42 7.79
981 9678 KUNSZTOWICZ JULIEN   SH 264 1:47:51 07:42 7.79
982 9681 CONSTANTIN CRYSTELE   SD 232 1:47:51 07:42 7.79
983 9017 MELKI FANNY   SD 233 1:47:53 07:42 7.79
984 9347 DELNESTE JULIE   A1 132 1:48:06 07:43 7.77
985 9131 MOLLE CHRISTEL ATHOIS D'COURIR A1 133 1:48:07 07:43 7.77
986 8882 MEDEZ LAURENCE HUMANIS A1 134 1:48:09 07:44 7.77
987 8020 CAQUANT AMELIE   SD 234 1:48:12 07:44 7.76
988 8021 CAQUANT FREDERIC   V1 170 1:48:13 07:44 7.76
989 11396 DUJARDIN ALEXIS   SH 265 1:48:20 07:44 7.75
990 8300 LEPOUTRE DOROTHEE   A1 135 1:48:20 07:44 7.75
991 8346 BOURDON DAVID JCPMFFLV V1 171 1:48:25 07:45 7.75
992 9797 FRAU ANTHONY FLUNCH SH 266 1:48:27 07:45 7.75
993 8403 VINCKIER DAVID   V1 172 1:48:29 07:45 7.74
994 8711 THOMAS VINCENT   SH 267 1:48:33 07:45 7.74
995 8221 MAKA ERIC   V2 98 1:48:33 07:45 7.74
996 8016 BRUNIN MARIE-LINE ADDM OGY A2 40 1:48:34 07:45 7.74
997 9145 PARMENTIER LAURENT   V1 173 1:48:35 07:45 7.74
998 8726 WINCQ AXELLE ADDM OGY SD 235 1:48:36 07:45 7.73
999 8956 HUGE LAURA JE COURS POUR MA SD 236 1:48:38 07:46 7.73
1000 9697 MC DONALD CARMEL   SD 237 1:48:47 07:46 7.72
1001 9715 CAENES CÉCILE   SD 238 1:48:47 07:46 7.72
1002 8884 VAN OUTRYVE PATRICIA HUMANIS A2 41 1:48:48 07:46 7.72
1003 8322 SACKEBANDT XAVIER   V2 99 1:48:49 07:46 7.72
1004 8217 JACQUEMART MANON   SD 239 1:48:52 07:47 7.72
1005 8890 CHAANSON CINDY JCPMF FLV SD 240 1:48:52 07:47 7.72
1006 8293 GUILLOT ANGELIQUE   A1 136 1:48:53 07:47 7.71
1007 9640 LEPERS ANGELIQUE ALLEZ FRÉDÉ A1 137 1:48:56 07:47 7.71
1008 8199 GONCALVES SYLVIA   A1 138 1:48:57 07:47 7.71
1009 8205 CARLIER TIPHAIBE   SD 241 1:49:00 07:47 7.71
1010 8465 WELSCHEN ANNE VERTIGO A2 42 1:49:02 07:47 7.70
1011 8411 LENCLU ISABELLE TEAM VERTIGO A1 139 1:49:02 07:47 7.70
1012 8963 KAIN SÉVERINE   SD 242 1:49:03 07:47 7.70
1013 9451 GOURDAIN NATHALIE   A1 140 1:49:03 07:47 7.70
1014 8962 KAIN EMILIE   SD 243 1:49:03 07:47 7.70
1015 9784 RUYFFELAERE CÉLINE CAMB A1 141 1:49:06 07:48 7.70
1016 8195 DESMETS THOMAS   SH 268 1:49:08 07:48 7.70
1017 8168 LIETAER STÉPHANIE BOULE TEAM SD 244 1:49:08 07:48 7.70
1018 9787 BERNARD ANTOINE FRERES BERNARD V2 100 1:49:13 07:48 7.69
1019 8539 DESCAMPS JULIETTE   SD 245 1:49:15 07:48 7.69
1020 8616 COUESPEL MELISANDE   SD 246 1:49:18 07:48 7.68
1021 9323 VERLINDE ANNE-CHARLOTTE   SD 247 1:49:18 07:48 7.68
1022 8200 DELVARRE SOPHIE   SD 248 1:49:19 07:49 7.68
1023 9330 LEDUC DAVID LES DRAGONS COUR V1 174 1:49:23 07:49 7.68
1024 8120 PIETQUIN JEAN-PIERRE   V3 20 1:49:28 07:49 7.67
1025 9416 LAHAYE PATRICIA   A2 43 1:49:37 07:50 7.66
1026 9371 ABLAY MICHEL   V2 101 1:49:37 07:50 7.66
1027 9692 BESENGEZ DAVID   V1 175 1:49:38 07:50 7.66
1028 8058 CASTIL FABIEN   SH 269 1:49:39 07:50 7.66
1029 8913 SWERTS QUEENIE   SD 249 1:49:43 07:50 7.66
1030 9842 NR 9842   xxx   1:49:46 07:50 7.65
1031 9843 VIEILLAME MARIA CMDC A2 44 1:49:47 07:51 7.65
1032 9592 NOYELLE STÉPHANIE   SD 250 1:49:49 07:51 7.65
1033 9511 THERAIN FLORENCE   SD 251 1:49:50 07:51 7.65
1034 8699 HERMAN NICOLAS LES COUREURS DU V1 176 1:49:51 07:51 7.65
1035 8838 HA SÉBASTIEN   V1 177 1:49:55 07:51 7.64
1036 9357 VEYS BERNARD JCL V2 102 1:50:04 07:52 7.63
1037 9361 MARDAY SOOGAMBAL JCL A2 45 1:50:04 07:52 7.63
1038 8613 DECRUYENAERE CELINE   SD 252 1:50:05 07:52 7.63
1039 8554 CAUDRON LAURENT   V1 178 1:50:08 07:52 7.63
1040 9760 FLAMENT CAROLINE   SD 253 1:50:12 07:52 7.62
1041 8917 ZABROWARNY ANNA   A1 142 1:50:15 07:53 7.62
1042 8591 SZCZEPANEK THOMAS   SH 270 1:50:16 07:53 7.62
1043 9759 FERNANDES CLAIRE   SD 254 1:50:17 07:53 7.62
1044 8162 NOËL ANGÉLIQUE   SD 255 1:50:20 07:53 7.61
1045 9020 LE GENTIL VALÉRIE   A1 143 1:50:27 07:53 7.60
1046 9099 CARLIER PEGGY   A1 144 1:50:28 07:53 7.60
1047 9818 LABOUSSOLE ANNE   A1 145 1:50:35 07:54 7.60
1048 9542 CAILLIAU SONIA   A1 146 1:50:35 07:54 7.60
1049 9019 LE GENTIL MARYLINE   SD 256 1:50:35 07:54 7.60
1050 9742 DEVIN MARC   V1 179 1:50:38 07:54 7.59
1051 8855 FONTAINE HELENE H2R A2 46 1:50:45 07:55 7.58
1052 8047 MICHAUT ANNA FFR RUGBY CLUB B SD 257 1:50:51 07:55 7.58
1053 8337 PETIT BERNARD   V2 103 1:50:52 07:55 7.58
1054 8335 PETIT-MALTAVERNE NATHALIE CAMB A1 147 1:50:52 07:55 7.58
1055 9280 PENNEQUIN FRANCOIS   V1 180 1:50:52 07:55 7.58
1056 9278 LACHAT HELENE   A1 148 1:50:53 07:55 7.58
1057 8958 TURZYNSKI LESZEK   V3 21 1:50:54 07:55 7.57
1058 9508 JOISSAINS BRIGITTE   A2 47 1:50:54 07:55 7.57
1059 8657 DECLERCQ ANNE-SOPHIE BAC BELGIQUE A1 149 1:50:55 07:55 7.57
1060 8661 BARGIBANT PATRICK BAC BELGIQUE V2 104 1:50:55 07:55 7.57
1061 9199 WILLART JUSTINE   SD 258 1:50:56 07:55 7.57
1062 9750 LONGUET ÉDITH   SD 259 1:50:56 07:55 7.57
1063 8161 ANSEL PASCALINE JOG GAZELEC NPDC SD 260 1:50:58 07:56 7.57
1064 9424 SIRIEZ DE LONGEVILLE CHARLOTTE   SD 261 1:50:59 07:56 7.57
1065 8345 DUCOULOMBIER ANNE FLORE   SD 262 1:50:59 07:56 7.57
1066 9468 MUSARDO RUBY TRAILERS DES FAG SD 263 1:51:00 07:56 7.57
1067 8575 ZINNEN VICTOR   SH 271 1:51:13 07:57 7.55
1068 8572 GASPAR GILIANE   SD 264 1:51:13 07:57 7.55
1069 8495 BOUILLOT CECILE TRAILER DES FAGN A2 48 1:51:17 07:57 7.55
1070 9469 COLLIN SÉVERINE TRAILERS DES FAG SD 265 1:51:17 07:57 7.55
1071 9306 QUENNEHEN LYNDA   A1 150 1:51:20 07:57 7.54
1072 8022 FRANCOIS CAMILLE   SD 266 1:51:21 07:57 7.54
1073 8901 LECLERCQ VINCENT CAPUCHE V2 105 1:51:23 07:57 7.54
1074 9226 DESJARDINS VINCENT   SH 272 1:51:33 07:58 7.53
1075 9089 LECHANTEUR FRANCOIS-XAVIER LES MOTIVÉS DU M SH 273 1:51:34 07:58 7.53
1076 9091 HECQUET AURÉLIE WASPS TEAM RUNNI SD 267 1:51:35 07:58 7.53
1077 9126 DUMONT GILLES L'AMOUR EST DIN' SH 274 1:51:36 07:58 7.53
1078 8243 LEFER SOPHIE JE COURS POUR MA A1 151 1:51:43 07:59 7.52
1079 8287 PARIS STEFAN   V1 181 1:51:44 07:59 7.52
1080 9412 RAVAUT EUGENIE   SD 268 1:51:50 07:59 7.51
1081 9413 RAVAUT GUILLAUME   SH 275 1:51:50 07:59 7.51
1082 8742 SLOCK MURIELLE   A1 152 1:51:51 07:59 7.51
1083 8031 TREILLE SARAH   SD 269 1:51:55 08:00 7.51
1084 9030 DELPLACE AMELIE   SD 270 1:51:58 08:00 7.50
1085 8375 DESCAMPS AGNÈS   A1 153 1:52:00 08:00 7.50
1086 8109 DUBLÉ RACHEL JOG IN REIMS A1 154 1:52:15 08:01 7.48
1087 8779 BADA CHRISTEL REMI' COURT A1 155 1:52:16 08:01 7.48
1088 9550 SOKOLOVSKA IVANA   A1 156 1:52:17 08:01 7.48
1089 8279 LOTIN BRUNO   V3 22 1:52:24 08:02 7.47
1090 9551 LARMUSEAU STEFANIE   A1 157 1:52:28 08:02 7.47
1091 8125 CAUX STÉPHANIE   SD 271 1:52:29 08:02 7.47
1092 9236 JANSSENS ANNE DOPHIE   A1 158 1:52:31 08:02 7.47
1093 9788 MESSEYNE CÉLINE   SD 272 1:52:49 08:04 7.45
1094 9075 MONTREUIL BENOIT   V2 106 1:52:50 08:04 7.44
1095 9074 MONTREUIL SOPHIE   SD 273 1:52:50 08:04 7.44
1096 9749 VAN LINTHOUT JULIEN   SH 276 1:52:52 08:04 7.44
1097 9334 JAMESSE THOMAS   SH 277 1:52:56 08:04 7.44
1098 8405 BALLOT DEPARDIEU EMILIE   SD 274 1:52:56 08:04 7.44
1099 9684 FONTAINE AURELIE   SD 275 1:52:58 08:04 7.44
1100 8247 COTTON CAROLINE VERTIGO A2 49 1:53:05 08:05 7.43
1101 9258 DECAIGNY FRANCOISE VERTIGO A1 159 1:53:05 08:05 7.43
1102 9245 LEGRAND AURÉLIE   SD 276 1:53:06 08:05 7.43
1103 9015 HENOCQ SOPHIE   A1 160 1:53:12 08:05 7.42
1104 9528 FONTAINE BENEDICTE   SD 277 1:53:17 08:06 7.41
1105 9529 FERNANDES SANDRA   A1 161 1:53:18 08:06 7.41
1106 8796 CARDINAL MARIE-ALIX VERTIGO A1 162 1:53:22 08:06 7.41
1107 8286 SIMON FANNY   SD 278 1:53:29 08:06 7.40
1108 9732 ZOUAOUI DOMINIQUE GROUPE EMPLIO V2 107 1:53:31 08:07 7.40
1109 8155 ROSSEL GÉRALDINE   A1 163 1:53:35 08:07 7.40
1110 9063 ANTONIOL JULIEN BALOOO SH 278 1:53:37 08:07 7.39
1111 9623 DUPIRE VINCENT   V1 182 1:53:40 08:07 7.39
1112 8586 DUCROCQ BÉRENGÈRE   A1 164 1:53:44 08:07 7.39
1113 8490 DUTILLEUL CORINNE SPIBO A1 165 1:53:52 08:08 7.38
1114 8492 CAPRON ERIC SPIBO V1 183 1:53:53 08:08 7.38
1115 8987 DELPIERRE MARIE CLAIRE ASC CAP SD 279 1:53:54 08:08 7.37
1116 8990 DELPIERRE SEBASTIEN ASC CAP V1 184 1:53:56 08:08 7.37
1117 9649 GENC HULYA TEAM SD 280 1:53:57 08:08 7.37
1118 8754 CARPENTIER SABRINA   A1 166 1:54:01 08:09 7.37
1119 8382 DELIEGE FRANCOISE   A1 167 1:54:01 08:09 7.37
1120 8167 EL MOKHTARI SEHAM   SD 281 1:54:02 08:09 7.37
1121 8947 WRONKA PAULINE ASC CAP SD 282 1:54:03 08:09 7.36
1122 8994 WRONKA ISABELLE ASC CAP A1 168 1:54:03 08:09 7.36
1123 8968 MOUILLARD AMAELIE ASCCAP CORBEHEM SD 283 1:54:04 08:09 7.36
1124 8992 MANTEL CHRISTINE ASC CAP A1 169 1:54:04 08:09 7.36
1125 8966 MOUILLARD VALERIE ASCCAP CORBEHEM A1 170 1:54:04 08:09 7.36
1126 9581 AUDOUIN ALIZEE   SD 284 1:54:05 08:09 7.36
1127 9576 AUDOUIN CAROLINE   A2 50 1:54:05 08:09 7.36
1128 8844 GROSJEAN MARTINE   A1 171 1:54:06 08:09 7.36
1129 9417 MONSEZ ANNE-CÉCILE   A1 172 1:54:06 08:09 7.36
1130 9384 BRONZI BERNADETTE LES ECLATES PERU A1 173 1:54:11 08:09 7.36
1131 8314 BAUDOUX SANDRA JCPMF FOSSES LA A1 174 1:54:13 08:10 7.35
1132 9509 BOUQUILLON JEREMY   SH 279 1:54:40 08:11 7.33
1133 9337 TOUYON AURELIE   SD 285 1:54:42 08:12 7.32
1134 9457 TOUYON JEROME   SH 280 1:54:42 08:12 7.32
1135 9756 POULY CHRISTELE   A2 51 1:54:42 08:12 7.32
1136 8140 MARCHE HELENE   SD 286 1:54:44 08:12 7.32
1137 9380 DELEMARLE LISE BETHUNE ATHLETIS SD 287 1:54:52 08:12 7.31
1138 9644 FRAU VALERIO   V2 108 1:54:54 08:12 7.31
1139 9562 BAUFAYS GENEVIEVE   A2 52 1:54:54 08:12 7.31
1140 9642 PIETERS LAURENT FLUNCH V1 185 1:54:54 08:12 7.31
1141 8201 DEVILDER SIDONIE   SD 288 1:54:55 08:13 7.31
1142 8269 DESTENAY PATRICK COURT-SAINT-ETIE V1 186 1:54:56 08:13 7.31
1143 9822 NR 9822   xxx   1:55:03 08:13 7.30
1144 8192 BODIN LESLIE   A1 175 1:55:15 08:14 7.29
1145 8216 BERNARD JANE   A1 176 1:55:15 08:14 7.29
1146 8215 BERNARD MICHEL   V1 187 1:55:15 08:14 7.29
1147 9339 VANOPDENBOSCH DOMINIQUE   V1 188 1:55:17 08:14 7.29
1148 8758 DECONDÉ AXELLE   A1 177 1:55:17 08:14 7.29
1149 9343 EXSTEEN SÉVERINE FCHA A1 178 1:55:17 08:14 7.29
1150 9214 DAUCHELLE MARINE   SD 289 1:55:18 08:14 7.28
1151 9608 FEKIR ABDEL-OUAHID   SH 281 1:55:19 08:14 7.28
1152 9536 FLOUQUET PEGGY   A1 179 1:55:22 08:14 7.28
1153 9068 LEFEBVRE ODILE   A1 180 1:55:23 08:15 7.28
1154 9088 AUSSEMS MARIE-NOELLE LES MOTIVÉS DU M SD 290 1:55:25 08:15 7.28
1155 8574 GIELEN MURIELLE   A2 53 1:55:40 08:16 7.26
1156 9230 COURTIN PHILIPPE ASC CAP V2 109 1:55:43 08:16 7.26
1157 9114 DELAHAY LOUIS   SH 282 1:56:00 08:17 7.24
1158 9070 FACHE LAURENCE VAFA A1 181 1:56:02 08:17 7.24
1159 8602 MEURISSE JULIE   A1 182 1:56:02 08:17 7.24
1160 8604 ALLENDER ANNE   A1 183 1:56:02 08:17 7.24
1161 9544 VANDERHOEVEN CATHERINE   A1 184 1:56:05 08:18 7.24
1162 9597 JOORIS SERGE   V1 189 1:56:05 08:18 7.24
1163 10522 FOUTERET VALÉRIE   A2 54 1:56:06 08:18 7.23
1164 9122 REIMS MARTINE JCPMFFLV A2 55 1:56:14 08:18 7.23
1165 11267 VIGLINO DANIEL JCPMF FLV V2 110 1:56:14 08:18 7.23
1166 8328 RINCHARD VALERIE JCPMF FLV A1 185 1:56:15 08:18 7.23
1167 8179 TIMPERMAN GENEVIÈVE JCPMF FLV SD 291 1:56:15 08:18 7.23
1168 8185 LECLERCQ ISABELLE   A1 186 1:56:18 08:18 7.22
1169 8420 HINDRYCKX MARC JOGGING CLUB HAM V2 111 1:56:23 08:19 7.22
1170 8466 LESAGE AXELLE GAZELLES DE SIRA A1 187 1:56:26 08:19 7.21
1171 9481 DELBECQUE MAUD   A1 188 1:56:28 08:19 7.21
1172 8558 DUMONT ELODIE   A1 189 1:56:31 08:19 7.21
1173 9482 LIENARD SABINE   A1 190 1:56:31 08:19 7.21
1174 8183 LAVERGNE CÉCILE   SD 292 1:56:36 08:20 7.20
1175 8704 WYPYCH CLÉMENT WYPYCH AND CO SH 283 1:56:38 08:20 7.20
1176 9486 PRADE MARIANNE FOULÉE PERWEZIEN A1 191 1:56:38 08:20 7.20
1177 8250 LOMMERS ANNE JE COURS À INCOU A2 56 1:56:39 08:20 7.20
1178 9362 MEAN CAROLE   A1 192 1:56:40 08:20 7.20
1179 9833 NR 9833   xxx   1:56:40 08:20 7.20
1180 9054 VASSEUR MARYLINE LES FURIEUX DE L A2 57 1:56:41 08:20 7.20
1181 9044 ELADARI ISABELLE LES FURIEUX DE L A2 58 1:56:41 08:20 7.20
1182 8652 LEDUC LAURENCE UAC A1 193 1:56:45 08:20 7.19
1183 9026 LA MATINA CONCETTA UAC SD 293 1:56:50 08:21 7.19
1184 8324 DEDRYVER MARINE   A1 194 1:57:01 08:22 7.18
1185 8718 TERASSE CHRISTELLE   A1 195 1:57:11 08:22 7.17
1186 8715 DENIS SYLVIE   A1 196 1:57:13 08:22 7.17
1187 8392 ANDRÉ STÉPHANIE   A1 197 1:57:15 08:23 7.16
1188 8777 MC GUINNESS MAUREEN   SD 294 1:57:15 08:23 7.16
1189 9273 BLOMME OLIVIER   V1 190 1:57:17 08:23 7.16
1190 8169 DUTHOO AUGUSTE   SH 284 1:57:17 08:23 7.16
1191 9415 LUTS KATHY VINOTEAM A1 198 1:57:21 08:23 7.16
1192 9837 ANSELME CLAIRE   SD 295 1:57:28 08:23 7.15
1193 9192 DOURIEZ CHRISTINE   A2 59 1:57:29 08:24 7.15
1194 9193 BOURDREZ MYRIAM   A1 199 1:57:29 08:24 7.15
1195 8391 GRÉGOIRE CHRISTEL   SD 296 1:57:33 08:24 7.15
1196 9729 BART CAROLINE GROUPE EMPLIO SD 297 1:57:34 08:24 7.14
1197 11587 FIEVEZ JULIETTE GROUPE EMPLIO A1 200 1:57:35 08:24 7.14
1198 9294 CHEVALIER PASCAL   V2 112 1:57:37 08:24 7.14
1199 9506 DELEAU CAMILLE AS MARCK SD 298 1:57:41 08:24 7.14
1200 9545 MORES CATHERINE   A1 201 1:57:46 08:25 7.13
1201 9057 LESNE ANNE-FRANÇOISE   A1 202 1:57:50 08:25 7.13
1202 9734 BOULET SUPAU HÉLÈNE ANTE MARE A2 60 1:57:51 08:25 7.13
1203 9739 LUSSON FRANCOIS ANTE MARE V2 113 1:57:51 08:25 7.13
1204 8343 CHARLES VANESSA   SD 299 1:57:55 08:25 7.12
1205 9638 SERRUYS EMELY   A1 203 1:58:04 08:26 7.11
1206 9625 NIETO JULIE MERIGNIES SD 300 1:58:04 08:26 7.11
1207 9624 NIETO OLIVIER MERIGNIES V1 191 1:58:05 08:26 7.11
1208 9507 LEFRANC SOPHIE   SD 301 1:58:06 08:26 7.11
1209 8795 DILLIES JULIETTE   A1 204 1:58:07 08:26 7.11
1210 8792 VIENNE ANGELIQUE   A1 205 1:58:07 08:26 7.11
1211 8916 DEBRUYNE GAELLE   A1 206 1:58:16 08:27 7.10
1212 8147 LE CUNFF JUSTINE   SD 302 1:58:16 08:27 7.10
1213 8924 TOULEMONDE RAFAELLE   SD 303 1:58:16 08:27 7.10
1214 8783 RAULT ISABELLE   SD 304 1:58:18 08:27 7.10
1215 8784 DOUADI YOUCEF   V2 114 1:58:18 08:27 7.10
1216 8605 SZELAG SOPHIE   A1 207 1:58:21 08:27 7.10
1217 8609 FRAGNON VINCENT   V1 192 1:58:21 08:27 7.10
1218 8606 SZELAG FREDERIC   V1 193 1:58:21 08:27 7.10
1219 8621 MONTAIGNE DELPHINE 1971 A1 208 1:58:23 08:27 7.10
1220 9783 DAEL ELISE   A1 209 1:58:23 08:27 7.10
1221 8438 DEKNUDT CHARLES TOURNAI GÉNÉRALE V1 194 1:58:26 08:28 7.09
1222 8861 PAPILLON CÉCILE   A2 61 1:58:28 08:28 7.09
1223 8237 BOSCH MICHEL RUNNERS BERNEAU V2 115 1:58:30 08:28 7.09
1224 9403 VANDROMME CHRISTOPHE   V1 195 1:58:30 08:28 7.09
1225 9704 LEDOUX MIREILLE ESTELLE ON THE B A1 210 1:58:39 08:29 7.08
1226 9267 NEGRO MASSIMILIANO   V2 116 1:58:40 08:29 7.08
1227 9707 DEVENYNS CÉCILE ESTELLE ON THE B SD 305 1:58:40 08:29 7.08
1228 9702 VANEXEM BERNARD ESTELLE ON THE B V2 117 1:58:41 08:29 7.08
1229 9709 PARENT QUENTIN ESTELLE ON THE B SH 285 1:58:41 08:29 7.08
1230 9790 VANEXEM ESTELLE   SD 306 1:58:41 08:29 7.08
1231 9706 WIELEMANS DANIEL ESTELLE ON THE B V1 196 1:58:41 08:29 7.08
1232 9708 SOYEZ LUCILE ESTELLE ON THE B SD 307 1:58:41 08:29 7.08
1233 9710 PLATTEEUW TANIA ESTELLE ON THE B A1 211 1:58:42 08:29 7.08
1234 9705 WANNEZ STÉPHANIE ESTELLE ON THE B A1 212 1:58:42 08:29 7.08
1235 9701 DELCAMBRE PHILIPPE ESTELLE ON THE B V1 197 1:58:42 08:29 7.08
1236 9703 GRELL GEORG ESTELLE ON THE B V2 118 1:58:43 08:29 7.08
1237 8675 DEVUYST JULIEN JCPMF SH 286 1:58:45 08:29 7.07
1238 9313 BOULANGER ALEXIA   SD 308 1:58:45 08:29 7.07
1239 9348 DEBREUCK MARYLISE   A1 213 1:58:45 08:29 7.07
1240 9281 FIOLET OLIVIER CACB V1 198 1:58:47 08:29 7.07
1241 8794 SCHERPEREEL VERONIQUE   A1 214 1:58:50 08:29 7.07
1242 9497 MAURI PASCALE   A2 62 1:58:52 08:29 7.07
1243 8213 POLLET SÉVERINE   A1 215 1:58:56 08:30 7.06
1244 9427 FOLLET NATHALIE ESCTERGNIER A1 216 1:58:58 08:30 7.06
1245 9428 FRADIN VINCENT   V2 119 1:58:58 08:30 7.06
1246 9795 KISYLYCZKO JULIE   SD 309 1:58:59 08:30 7.06
1247 8482 ROY ERIC   SH 287 1:59:00 08:30 7.06
1248 9796 CHARLIER PAULINE   SD 310 1:59:01 08:30 7.06
1249 8692 KODER NADINE LA FOULÉE PONT À A2 63 1:59:04 08:30 7.05
1250 8809 DESBARBIEUX CLÉMENTINE LA FOULÉE PONTAM JF 7 1:59:05 08:30 7.05
1251 9301 BICHU CLAUDINE LA FOULÉE PONT À A2 64 1:59:05 08:30 7.05
1252 9868 NR 9868   xxx   1:59:05 08:30 7.05
1253 8725 KODER CORINNE FOULÉE PONT À MA A2 65 1:59:05 08:30 7.05
1254 8228 DEMARLE ROSE LES FOULÉES PONT SD 311 1:59:05 08:30 7.05
1255 8369 DEBROUX JULIE   SD 312 1:59:08 08:31 7.05
1256 8333 VAN LOO STÉPHANIE   SD 313 1:59:08 08:31 7.05
1257 8615 NOËL JULIE   SD 314 1:59:08 08:31 7.05
1258 9296 DAVIGNY JEAN-CLAUDE JOGGING CLUB LAP V2 120 1:59:09 08:31 7.05
1259 9568 POUMAERE CHARLOTTE   SD 315 1:59:26 08:32 7.03
1260 9565 MORELLE CAROLINE   SD 316 1:59:26 08:32 7.03
1261 9182 FICHEUR ADELINE   SD 317 1:59:27 08:32 7.03
1262 8281 VERHAEGHE CHRISTOPHE   V1 199 1:59:27 08:32 7.03
1263 8595 GUYOMARD CINDERELLA   SD 318 1:59:33 08:32 7.03
1264 8614 LEFEVRE EMILIE   SD 319 1:59:37 08:33 7.02
1265 8196 BOUDAILLIEZ GERALDINE   A1 217 1:59:44 08:33 7.02
1266 9812 SPANNEUT CÉLINE   SD 320 1:59:51 08:34 7.01
1267 9161 BLUM JULIEN   V1 200 1:59:54 08:34 7.01
1268 9160 BOUCLY CORINNE   A1 218 1:59:55 08:34 7.00
1269 8488 KINGET OLIVIER   V1 201 1:59:55 08:34 7.00
1270 9162 HAEZEBROUCK PHILIPPE   V2 121 1:59:56 08:34 7.00
1271 8481 DUBUS MAGGY   A1 219 1:59:58 08:34 7.00
1272 9170 RONZULLO MICHELLA HUY JE COURS PAR A1 220 1:59:58 08:34 7.00
1273 8157 DAZIN MÉLANIE   A1 221 1:59:58 08:34 7.00
1274 8480 HENNIART FREDERIC   V2 122 1:59:58 08:34 7.00
1275 9110 PAJOT VALENTIN   SH 288 2:00:05 08:35 6.99
1276 9244 LAMOTTE ANNE HELOTEAM A1 222 2:00:08 08:35 6.99
1277 9289 NICOLAS NATHALIE HELLO TEAM A1 223 2:00:08 08:35 6.99
1278 9819 VANHEUVERSWYN CÉLINE   SD 321 2:00:08 08:35 6.99
1279 9271 ADAM DIDIER   V2 123 2:00:14 08:35 6.99
1280 9101 COLICHE THIBAUT   SH 289 2:00:19 08:36 6.98
1281 8892 BRYSSE ALINE ET MOUSCRON A1 224 2:00:20 08:36 6.98
1282 8459 SKILBECQ KATHY   A2 66 2:00:21 08:36 6.98
1283 9391 BOUZIANI FARID   SH 290 2:00:22 08:36 6.98
1284 9799 GOUBEL FLORIANE   SD 322 2:00:32 08:37 6.97
1285 9798 TALON BÉNÉDICTE TRIATHLON CLUB B A2 67 2:00:33 08:37 6.97
1286 8817 SIGNORINO GELO ROSALIA HUY JE COURS PAR A1 225 2:00:33 08:37 6.97
1287 9407 GOEMAERE ANNE MARIE   A2 68 2:00:33 08:37 6.97
1288 8507 WISEUR CHRISTEL   A2 69 2:00:33 08:37 6.97
1289 8378 CAMBIER VIRGINIE XTRATIME RUNNING SD 323 2:00:38 08:37 6.96
1290 8660 DELATTRE GRÉGORY   V1 202 2:00:40 08:37 6.96
1291 8863 DEVILLET MARIE AUCUN SD 324 2:00:42 08:37 6.96
1292 8857 ORSELLI ALINE LES GUMPETTES A1 226 2:00:56 08:38 6.95
1293 8638 WALLEMME SARAH LES GUMPETTES A1 227 2:00:56 08:38 6.95
1294 8473 ALLARD STÉPHANE TIME TO RUN V3 23 2:01:00 08:39 6.94
1295 8843 CLEENEWERCK VIRGINIE   A1 228 2:01:04 08:39 6.94
1296 9326 STAS KATTY ACKO A2 70 2:01:08 08:39 6.93
1297 11323 SCHOUTERDEN MARIJKE ACKO A1 229 2:01:09 08:39 6.93
1298 9612 LIURNO GEOFFREY   SH 291 2:01:10 08:39 6.93
1299 9717 CAZIN CLAIRE GROUPE EMPLIO SD 325 2:01:13 08:40 6.93
1300 8764 SCHRIVE CLAIRE   SD 326 2:01:16 08:40 6.93
1301 8761 BOSSART CAMILLE   SD 327 2:01:16 08:40 6.93
1302 9757 CARETTE CHANTAL MAUBEUGE MARATHO A1 230 2:01:31 08:41 6.91
1303 9111 CLÉA GROMADA   SD 328 2:01:33 08:41 6.91
1304 8165 VANHOUTTE ANNE   A1 231 2:01:33 08:41 6.91
1305 8648 POTTIER LUCAS LES TRAIL LENTS SH 292 2:01:35 08:41 6.91
1306 8601 PIERSOUL PATRICK   V3 24 2:01:39 08:41 6.90
1307 8623 MARCHAND KATHY LES FRELONS A1 232 2:01:41 08:42 6.90
1308 9601 BOUSQUET HERVE   V2 124 2:01:42 08:42 6.90
1309 8624 EHX ANDRÉ LES FRELONS V2 125 2:01:42 08:42 6.90
1310 9602 WALLYN ODILE ZUYDCOOTE LONGE A1 233 2:01:43 08:42 6.90
1311 11535 BOONE BART   V1 203 2:01:46 08:42 6.90
1312 8649 LOTTILLIER ESTELLE LES TRAIL LENTS SD 329 2:01:48 08:42 6.90
1313 8765 RETHY SANDRINE   A1 234 2:01:49 08:42 6.90
1314 8248 VOYAME ANAÏSE   SD 330 2:01:50 08:42 6.89
1315 8921 REENAERS SANDRA   SD 331 2:01:57 08:43 6.89
1316 8552 ANSELME MÉLINE   SD 332 2:01:57 08:43 6.89
1317 8123 BONTE AURÉLIE   SD 333 2:01:57 08:43 6.89
1318 8089 MOURI CAMILLE   SD 334 2:02:04 08:43 6.88
1319 8859 DE VERA BENJAMIN   SH 293 2:02:09 08:44 6.88
1320 8858 JACHEET AUDE   SD 335 2:02:09 08:44 6.88
1321 8687 DELVIGNE ISABELLE HUY JE COURT PAR A1 235 2:02:12 08:44 6.87
1322 8526 BOQUET SYLVIE   A1 236 2:02:13 08:44 6.87
1323 8527 VANDEN BOSSCHE DIEGO   V1 204 2:02:13 08:44 6.87
1324 8563 SIMON BERTRAND VERTIGO V1 205 2:02:14 08:44 6.87
1325 8852 DECRUYENAERE CAROLINE   SH 294 2:02:35 08:45 6.85
1326 8848 LERAT SABINE LES ÉCLATÉS PÉRU A2 71 2:02:35 08:45 6.85
1327 10788 PONCIN MARTINE   A1 237 2:02:36 08:45 6.85
1328 9322 DEBUREAUX AMANDINE   SD 336 2:02:41 08:46 6.85
1329 8937 DIAS DE DRITO JENNIFER   SD 337 2:02:57 08:47 6.83
1330 8204 STOFFAES MARIE   SD 338 2:02:58 08:47 6.83
1331 9358 FOURDIN CLEMENCE   SD 339 2:02:58 08:47 6.83
1332 9287 FOURDIN YVES   V2 126 2:02:58 08:47 6.83
1333 8319 DECOBERT MAURINE JOGGING CLUB LAP SD 340 2:03:00 08:47 6.83
1334 9321 DELABRE LAURENT JOGGING CLUB DE V1 206 2:03:00 08:47 6.83
1335 8899 PREUD'HOMME SABRINA   SD 341 2:03:01 08:47 6.83
1336 9433 TREFEL JACQUES   SH 295 2:03:03 08:47 6.83
1337 9431 TREFEL CLAIRE   SD 342 2:03:04 08:47 6.83
1338 8658 PICARD NICOLAS   V1 207 2:03:05 08:48 6.82
1339 8674 DE ROY HÉLÈNE JCPMF SD 343 2:03:06 08:48 6.82
1340 9459 QUESADA KARINE AS AGNETZ ATHLET A1 238 2:03:11 08:48 6.82
1341 9458 QUESADA JEAN BAPTISTE AS AGNETZ ATHLET V2 127 2:03:11 08:48 6.82
1342 9256 LOISEAU MICHEL WPRC V3 25 2:03:12 08:48 6.82
1343 8303 PERREAUX CHRISTEL VERTIGO A1 239 2:03:18 08:48 6.81
1344 8028 WYPYCH MAITÉ   SD 344 2:03:34 08:50 6.80
1345 8567 DUBOIS JULIE   SD 345 2:03:38 08:50 6.79
1346 8571 STRUK RACHEL   SD 346 2:03:38 08:50 6.79
1347 8436 XHROUET CÉLINE JCPMF SART-TILMA A1 240 2:03:40 08:50 6.79
1348 8412 HENRIST CATHERINE JCPMF SART TILMA A1 241 2:03:40 08:50 6.79
1349 8359 BODART FLORENCE ROS A2 72 2:03:51 08:51 6.78
1350 9492 BOTTEN ANNE-CHRISTINE R.O.S A1 242 2:03:51 08:51 6.78
1351 8440 FABRE FLORIANE   A2 73 2:03:59 08:51 6.77
1352 8664 BOCQUET CHRISTOPHE   V2 128 2:03:59 08:51 6.77
1353 8381 CRANINX LUC   V2 129 2:04:00 08:51 6.77
1354 8450 DESAINS CHRISTÈLE   A1 243 2:04:04 08:52 6.77
1355 9141 DUMOULIN LUCILLE   SD 347 2:04:13 08:52 6.76
1356 9646 DUPAU NATHALIE   A2 74 2:04:13 08:52 6.76
1357 8878 DESTINÉ CHRISTIAN   V2 130 2:04:20 08:53 6.76
1358 8363 DESSEAUX MARJORIE   A1 244 2:04:22 08:53 6.75
1359 8064 DEUEZ AUDREY   SD 348 2:04:24 08:53 6.75
1360 8105 DECLERCQ LUCILE   SD 349 2:04:24 08:53 6.75
1361 8773 FAUVART MARIE-ANNICK   A1 245 2:04:27 08:53 6.75
1362 8772 MONSTERLET LAURENCE   A1 246 2:04:27 08:53 6.75
1363 9444 DELANGRE COLETTE KAIN BRUYERE A3 4 2:04:28 08:53 6.75
1364 8679 FINO CELINE   A1 247 2:04:34 08:54 6.74
1365 8677 FINO YANN   V1 208 2:04:34 08:54 6.74
1366 9232 PETIT LAURENCE ARTOIS ATHLÉTISM A2 75 2:04:37 08:54 6.74
1367 8928 ALY LUDIVINE ARTOIS ATHLÉTISM SD 350 2:04:37 08:54 6.74
1368 8927 BARBIEUX CORINNE ARTOIS ATHLETISM A2 76 2:04:38 08:54 6.74
1369 9375 BONIFACE MARIE ARTOIS ATHLÉTISM A1 248 2:04:38 08:54 6.74
1370 9338 VERBRUGHEN XAVIER ARTOIS ATHLETISM SH 296 2:04:38 08:54 6.74
1371 8238 BAADER JOELLE GOLDEN TUCHES SD 351 2:04:43 08:55 6.73
1372 8898 HANS BERNARD   V1 209 2:04:44 08:55 6.73
1373 8380 MAAS ELODIE   SD 352 2:04:50 08:55 6.73
1374 8424 DERU ALICE TUCHE TEAM SD 353 2:05:01 08:56 6.72
1375 8932 LEMAITRE MARIE BARBARA ARTOIS ATHLETISM A1 249 2:05:04 08:56 6.72
1376 9845 PLACE LUCIE GROUPE EMPLIO SD 354 2:05:05 08:56 6.72
1377 8251 ROUSSEL MAGALIE LES COUREURS DU A1 250 2:05:07 08:56 6.71
1378 9061 MAYEUR DOROTHEE LES LOUPS BLANCS A1 251 2:05:07 08:56 6.71
1379 9385 GHEZALI STEPHANE   V2 131 2:05:11 08:57 6.71
1380 8942 DEMETS ISABELLE JCL A1 252 2:05:14 08:57 6.71
1381 8172 WATTIEZ JOHAN LES ÉCLATÉS DE P V1 210 2:05:20 08:57 6.70
1382 8910 MIGNOLET DOROTHÉE   A1 253 2:05:37 08:58 6.69
1383 8681 PONCELET SARAH   A1 254 2:05:37 08:58 6.69
1384 9325 MEIRHAGHE ALINE   A1 255 2:05:41 08:59 6.68
1385 9421 HENNEBIQUE MANUELLE   A1 256 2:05:42 08:59 6.68
1386 9777 DARCAS BÉNÉDICTE FLUNCH A1 257 2:05:52 08:59 6.67
1387 9138 BOULANGER VIRGINIE   A1 258 2:05:54 09:00 6.67
1388 10274 MARTINUSSEN CAROLINE LES MUSCLETTES SD 355 2:05:56 09:00 6.67
1389 8068 DUVIEUXBOURG CAROLE   SD 356 2:05:57 09:00 6.67
1390 9363 GHELLAB LILYA POT D ECHAPPEMEN SD 357 2:06:03 09:00 6.66
1391 9353 BOUDJEMA FERIEL POT D ECHAPPEMEN SD 358 2:06:04 09:00 6.66
1392 9134 MOULY ISABELLE CAPUCHE TEAM A1 259 2:06:07 09:01 6.66
1393 9719 CATEZ CHARLOTTE MADAME SD 359 2:06:08 09:01 6.66
1394 9720 GALABERTHIER GUILLAUME   SH 297 2:06:13 09:01 6.65
1395 8462 SAUDOYER JEAN-FRANÇOIS LES DRAGONS V1 211 2:06:23 09:02 6.65
1396 8759 LEBEAU FRANCIS   V3 26 2:06:25 09:02 6.64
1397 8547 NGEYA WALLIS LES ÉCLATÉS SD 360 2:06:25 09:02 6.64
1398 9146 CAUDAL BENOIT   V1 212 2:06:26 09:02 6.64
1399 9778 MOUSSA NASSERA WPRC SD 361 2:06:28 09:02 6.64
1400 8787 REGNIER MARIE-CAROLINE   A1 260 2:06:29 09:02 6.64
1401 9027 HINDRYCK NATHALIE   A1 261 2:06:29 09:02 6.64
1402 8727 DEGLIN SÉVERINE   A1 262 2:06:40 09:03 6.63
1403 8728 MARANDON LENAÏG   A1 263 2:06:40 09:03 6.63
1404 8594 GUYOMARD CATHERINE VERTIGO A2 77 2:06:47 09:03 6.63
1405 8943 PRADE MURIELLE JCL A2 78 2:06:48 09:03 6.62
1406 9021 DELLETTRE ANNE   A2 79 2:06:49 09:04 6.62
1407 8900 CNUDDE SOPHIE   A1 264 2:06:49 09:04 6.62
1408 8631 KEUTGENS CHRISTIANE   A1 265 2:06:53 09:04 6.62
1409 8398 LIBOTTE ISABELLE   A1 266 2:06:55 09:04 6.62
1410 9532 FELICIANO CELINE   A1 267 2:06:56 09:04 6.62
1411 9215 WOLLAERT CORALIE USL JOGGING SD 362 2:06:56 09:04 6.62
1412 8327 MASSART MARJORIE RUN AND SMASH A1 268 2:06:59 09:04 6.61
1413 8896 VANDENBOSSCHE GERALDINE   SD 363 2:07:06 09:05 6.61
1414 9676 GOBERT JULIE   A1 269 2:07:10 09:05 6.61
1415 9456 LEFEBVRE MARIE-LAURE   SD 364 2:07:13 09:05 6.60
1416 8988 CORDIER CATHY ASC CAP A1 270 2:07:19 09:06 6.60
1417 9677 PREVOT DELPHINE   SD 365 2:07:30 09:06 6.59
1418 8644 MAYENCE GILLES IMPALAS V1 213 2:07:30 09:06 6.59
1419 8645 LEMOINE BÉNÉDICTE FORMYFIT A1 271 2:07:31 09:07 6.59
1420 10845 TARTE PAULINE JCPMFFLV SD 366 2:07:32 09:07 6.59
1421 8730 PILLOT VINCENT 1976 V1 214 2:07:36 09:07 6.58
1422 8678 FINO MORGANE   SD 367 2:07:39 09:07 6.58
1423 8680 LAVIGNE GUILLAUME   V1 215 2:07:39 09:07 6.58
1424 8731 PILLOT TANIA   A1 272 2:07:40 09:07 6.58
1425 9341 JAUQUET MATHILDE   SD 368 2:07:43 09:07 6.58
1426 9344 DIERICKX DOMINIQUE   A2 80 2:07:44 09:07 6.58
1427 8316 GUYOT MATHIS   SH 298 2:07:48 09:08 6.57
1428 8116 PERRAY ISABELLE JOG IN REIMS SD 369 2:07:57 09:08 6.56
1429 8059 LEFEVRE FABRICE   V1 216 2:07:58 09:08 6.56
1430 8061 LEFEVRE PRECYLLIA   SD 370 2:07:59 09:09 6.56
1431 10972 DUMONT JULIEN   V1 217 2:08:10 09:09 6.55
1432 8954 SPELGATTI AUDREY   SH 299 2:08:10 09:09 6.55
1433 9269 BAUWENS FRÉDÉRIC   V1 218 2:08:11 09:09 6.55
1434 9191 HORLANCE DELPHINE   A2 81 2:08:13 09:10 6.55
1435 9647 DESCAMPS MARIE JOSÉ   A2 82 2:08:13 09:10 6.55
1436 9113 DELAHAY PRISCILLA   A1 273 2:08:14 09:10 6.55
1437 8755 BAINE TANIA JCPMFL A1 274 2:08:18 09:10 6.55
1438 8926 STOZICKY SYLVIE   A2 83 2:08:25 09:10 6.54
1439 11134 LEFEBVRE BENOIT   V2 132 2:08:26 09:10 6.54
1440 9613 STÉPHANIE ZARBO   SD 371 2:08:28 09:11 6.54
1441 9611 DOPPAGNE INGRID   SD 372 2:08:29 09:11 6.54
1442 9690 CHAPRON DELPHINE   A1 275 2:08:29 09:11 6.54
1443 9152 BECKERS MURIEL JCPMF A1 276 2:08:36 09:11 6.53
1444 8124 DUVAL CAMILLE   SD 373 2:08:38 09:11 6.53
1445 9252 THERON VALERIE   SD 374 2:08:39 09:11 6.53
1446 11155 VITOUX CYRILLE   SH 300 2:08:59 09:13 6.51
1447 8983 HONNAY OLIVIER LES APÉROS DU MA V1 219 2:09:13 09:14 6.50
1448 9299 SYMOENS NATHALIE JCPMF ROUGE CLOÎ A1 277 2:09:14 09:14 6.50
1449 8257 JANS SIEGRID LES APÉROS DU MA A1 278 2:09:14 09:14 6.50
1450 8982 GUISSE FRANCOIS LES APÉROS DU MA SH 301 2:09:14 09:14 6.50
1451 8339 GREGOIRE ISABELLE   A1 279 2:09:15 09:14 6.50
1452 8349 MALHERBE CHRISTINE LES APEROS DU MA A2 84 2:09:15 09:14 6.50
1453 8981 BILLY STEPHANIE LES APÉROS DU MA SD 375 2:09:15 09:14 6.50
1454 9135 COSME INGRID LES APEROS DU MA A1 280 2:09:15 09:14 6.50
1455 8778 ROWIES CHRISTINE LES APÉROS DU MA A2 85 2:09:15 09:14 6.50
1456 9406 GOVAERTS SYLVIE LES APÉROS DU MA A2 86 2:09:15 09:14 6.50
1457 9645 BOUCHEZ ANNE   A2 87 2:09:20 09:14 6.49
1458 9320 CASIER MARIE   SD 376 2:09:25 09:15 6.49
1459 9166 DECOORNE VINCENT PACCAP FOURNES V1 220 2:09:27 09:15 6.49
1460 9165 DECOORNE CHARLOTTE PACCAP FOURNES A1 281 2:09:27 09:15 6.49
1461 8502 BACCEGA ISABELLE   A2 88 2:09:27 09:15 6.49
1462 9040 BRAUN PETRA   A2 89 2:09:33 09:15 6.48
1463 9043 LEMAY CRISTELLE   A1 282 2:09:33 09:15 6.48
1464 8752 LION LAURENCE   A1 283 2:09:37 09:16 6.48
1465 8751 HOUSSIÈRE DELPHINE   SD 377 2:09:37 09:16 6.48
1466 8460 ROBINET SÉVERINE ARCH A1 284 2:09:41 09:16 6.48
1467 9009 GASQUET EMILIE   SD 378 2:09:41 09:16 6.48
1468 8246 LAHR MARIELLE JTRR A2 90 2:10:05 09:18 6.46
1469 8445 DENAYER MARIE   A1 285 2:10:11 09:18 6.45
1470 9437 LACOUR ALICE   SD 379 2:10:19 09:19 6.45
1471 9200 HUMIÈRE DEREGNAUCOURT VIRGINIE   SD 380 2:10:33 09:20 6.43
1472 8385 OBERT ANITA   A1 286 2:10:46 09:20 6.42
1473 8771 NEMETH OLIVIER   V2 133 2:10:46 09:20 6.42
1474 8823 PECOURT ADELINE   SD 381 2:10:48 09:21 6.42
1475 8822 RETAUX DELPHINE   A1 287 2:10:48 09:21 6.42
1476 8820 WAGON VIRGINIE   A1 288 2:10:48 09:21 6.42
1477 8821 LEPLAT GAËLLE   A1 289 2:10:49 09:21 6.42
1478 8384 RAMBUR VIRGINIE   SD 382 2:10:50 09:21 6.42
1479 8812 WATTIEZ DOMINIQUE   V3 27 2:11:03 09:22 6.41
1480 8914 VERLINDEN KARIN   A2 91 2:11:20 09:23 6.40
1481 8476 PELLETIER CÉLINE   A1 290 2:11:48 09:25 6.37
1482 9404 BOUCHAT FABIENNE   A1 291 2:11:51 09:25 6.37
1483 8922 DEWASTE MARYLINE COURIR À BAISIEU A3 5 2:11:52 09:25 6.37
1484 8960 WAGENER NATHALIE JOGGING CLUB HAM A2 92 2:11:56 09:25 6.37
1485 8590 TANASE CHRISTELLE   A1 292 2:12:10 09:26 6.36
1486 8428 SCHRECK VALERIE   A1 293 2:12:13 09:27 6.35
1487 8194 IDBELLA NADIA   A1 294 2:12:13 09:27 6.35
1488 8218 MARTIN MURIEL   A1 295 2:12:14 09:27 6.35
1489 8824 CARELS VALÉRIE BAC SD 383 2:12:25 09:28 6.34
1490 9172 PHILIPPON OLIVIER   V1 221 2:12:30 09:28 6.34
1491 10370 BERLEMONT ISABELLE RAPTOR A2 93 2:12:47 09:29 6.33
1492 8188 SOUMARE EMELINE   SD 384 2:12:51 09:29 6.32
1493 9364 WOLFF SOPHIE   A2 94 2:12:58 09:30 6.32
1494 8366 VAN HOOREN JULIE   A1 296 2:13:04 09:30 6.31
1495 8365 DE BLAERE SOPHIE   A1 297 2:13:05 09:30 6.31
1496 9466 PELLETIER FRÉDÉRIC   V1 222 2:13:14 09:31 6.30
1497 8285 BULTEAU JOSÉPHINE   SD 385 2:13:27 09:32 6.29
1498 10719 DEUSE CORINNE   A1 298 2:13:42 09:33 6.28
1499 8446 THERY MARIELLE   A1 299 2:13:49 09:34 6.28
1500 8472 TARGNION ELISE LES BLONDES EN F SD 386 2:13:54 09:34 6.27
1501 9691 MUANZA BERTHOLD   V2 134 2:13:58 09:34 6.27
1502 9689 CHAPRON LAURE   A1 300 2:13:58 09:34 6.27
1503 9067 STEENHAUT HANS TRIATH V2 135 2:14:02 09:34 6.27
1504 9066 POT CHRISTINE ATHOIS D'COURIR A2 95 2:14:02 09:34 6.27
1505 8463 GOSSET ANNE-VALÉRIE   A1 301 2:14:04 09:35 6.27
1506 8903 T'SIOBBEL CAROLINE   A1 302 2:14:04 09:35 6.27
1507 10928 LEMAIRE MÉLANIE   SD 387 2:14:06 09:35 6.26
1508 9429 HULIN MARIE-CHRISTINE JC BAUDOUR A2 96 2:14:09 09:35 6.26
1509 8707 D'HULST GHISLAIN JOGGING CLUB LUI V2 136 2:14:12 09:35 6.26
1510 8708 LABARRE PATRICE JOGGING CLUB LUI V2 137 2:14:12 09:35 6.26
1511 9731 DELARUE MATTHIEU GROUPE EMPLIO SH 302 2:14:19 09:36 6.25
1512 9769 PETYT CHRISTOPHE GROUPE EMPLIO V2 138 2:14:30 09:36 6.25
1513 8521 BELAIDI NADIA   A2 97 2:14:39 09:37 6.24
1514 9072 BENJAMIN ELODIE   A2